GFSFLT1_con_mlcape_000.txt.gz
CAPE
200 372 113 120 292 471 736 858 1031 1281 1532 2128 2458 2480 2600 2784 2780 2537 2292 2114 1243 772 396 164 266 1318 469 169 99 69 0 0 1
93 299 235 95 232 420 624 832 1103 1427 1788 2099 2253 2286 2535 2771 2875 2680 1929 1785 2080 1267 911 243 685 715 383 106 127 19 0 0 1
112 241 300 125 184 325 535 802 1021 1402 1725 2019 2174 2151 2323 2421 2558 2738 2527 2344 2167 1347 1298 954 574 435 146 84 90 21 20 0 0
92 173 399 338 194 249 573 663 840 1269 1695 1959 2171 2186 2229 2185 2155 2305 2642 2539 2826 2470 1744 895 582 444 109 109 73 26 20 12 0
0 107 356 519 462 444 501 759 712 952 1331 1775 2080 2162 2394 2240 2143 2151 2415 2700 2545 1715 1247 418 358 268 174 64 45 43 70 18 0
39 203 417 649 690 743 788 799 1016 1080 1460 1673 1859 2125 2300 2225 2087 2226 2275 2355 1404 981 364 0 8 0 3 81 83 41 92 135 80
73 347 476 765 787 969 1074 1086 1428 1561 1508 1727 1922 2014 2336 2396 2227 2146 2248 1595 401 199 0 0 0 0 0 18 190 109 157 163 156
76 374 356 790 994 1323 1585 1522 1637 1793 1847 1882 1950 2149 2244 2473 2458 2233 1556 871 317 67 0 0 0 0 0 0 186 114 173 158 96
79 522 338 890 1188 1416 1757 1788 1927 2037 2089 1992 2137 2282 2404 2426 2505 1825 875 604 395 100 0 0 0 0 0 0 33 8 5 74 137
84 449 354 697 1072 1361 1808 1926 2143 2136 2132 2094 2148 2343 2436 2594 2306 1507 752 568 499 300 3 0 0 0 0 0 17 12 14 37 80
104 554 737 815 962 1322 1537 1551 1676 1664 1845 1957 2119 2375 2429 2475 1963 1334 968 648 659 336 46 0 22 28 2 0 0 110 37 28 167
234 671 978 1008 983 1202 1272 1058 1274 1347 1539 1768 2001 2192 2253 1991 1622 1190 928 824 661 606 175 61 246 299 210 128 137 124 43 54 156
94 473 663 780 703 944 889 785 968 1229 1425 1761 1984 2119 2102 1712 1406 1252 969 1015 874 550 575 357 247 301 261 133 398 57 2 14 166
452 706 815 827 740 604 706 809 1052 1175 1411 1607 1875 2109 1997 1503 1387 1560 1364 1138 806 778 650 425 490 394 376 316 48 259 12 0 112
758 645 540 449 663 967 1144 1173 1353 1364 1520 1992 2174 2198 1802 1548 1553 1459 1510 1041 743 535 494 592 480 405 614 346 530 197 33 1 4
454 410 405 539 912 1293 1575 1808 1822 1920 2543 2417 2288 1892 1642 1538 1398 1229 1200 950 636 578 533 579 466 497 571 411 579 208 0 0 0
705 873 758 748 836 968 1097 1521 1795 2208 1751 2043 2076 1679 1646 1385 1422 1172 894 847 807 855 837 747 641 684 551 264 374 265 23 0 0
833 950 931 843 933 1376 1499 1756 1849 1868 1773 1745 1733 1532 1446 1330 1047 989 1230 777 425 802 137 155 370 259 97 55 272 354 195 48 51
1181 1212 1308 1418 1503 1799 1960 1977 1934 1979 1778 1753 1689 1238 1288 1199 1180 1278 1161 611 69 0 0 0 0 0 44 95 27 1 0 0 0
31 158 653 1646 1509 1713 1745 1845 1819 1806 1889 1746 1467 1224 1159 1004 862 657 641 603 276 63 0 0 0 0 0 0 0 0 0 0 0

GFSFLT1_con_mlcape_003.txt.gz
CAPE
67 342 437 150 421 709 956 925 1397 1558 2015 3066 3431 3070 2999 3068 2903 2161 1627 1686 1516 936 606 423 691 1160 1133 713 52 83 27 0 0
11 63 362 291 207 499 768 818 1264 1596 2017 2666 3111 2536 3393 3304 3165 2833 1612 1691 1806 1654 1006 453 213 746 782 519 101 149 31 0 5
2 18 336 365 214 338 585 728 1095 1605 2058 2656 2616 2635 3140 3107 3114 3218 2702 2394 2168 1709 1381 803 599 806 711 402 131 231 94 18 0
13 26 190 472 284 268 431 523 762 1257 1735 2289 2673 2749 2575 2660 2707 2819 2859 2570 2200 2207 1496 1664 804 955 583 173 161 166 115 62 13
14 15 83 313 420 261 326 537 486 755 1110 1461 2267 2673 2911 2868 2810 2675 2627 2697 2551 2570 2021 1771 961 732 596 61 77 54 104 87 7
0 39 53 232 342 359 444 509 549 442 949 1038 1544 2392 2696 2849 2602 2765 2596 2717 2769 2788 2593 1807 882 599 444 24 11 36 60 64 70
0 24 246 214 429 490 581 675 773 710 753 753 1232 1843 2064 2668 2906 2750 2572 2812 2725 2606 2115 1393 531 392 181 31 93 81 82 94 110
0 0 134 549 706 989 1168 984 1215 1189 975 1198 1360 2007 2175 2725 3144 2755 2591 2662 2884 2246 1639 962 350 117 74 57 96 183 272 122 95
0 0 0 530 969 1090 1738 1533 1819 1821 1691 1822 1962 2542 2603 2998 3362 2942 2615 2752 2573 1719 1316 657 209 4 0 17 0 0 17 101 27
0 0 0 146 915 1260 1645 1734 2205 2175 2363 2156 2419 2755 3033 3350 3637 3138 2641 2467 1964 1450 909 585 159 0 19 18 103 0 0 0 36
0 0 0 12 750 1385 1866 1867 1899 1978 2357 2662 2928 3104 3188 3416 3535 3039 2252 1682 1484 1224 1153 872 349 98 21 30 114 0 0 0 1
0 0 11 170 1075 1445 2165 2122 2343 2517 2560 2817 2990 3054 3261 3484 3544 2822 2074 1525 1336 1412 1427 1307 532 176 69 230 281 0 0 0 6
177 220 89 512 1290 1612 2293 2340 2333 2480 2404 2608 2881 3035 3205 3433 3231 2418 1856 1398 1306 1481 1720 1341 649 347 355 538 575 88 1 11 47
269 291 974 1677 1560 2137 2180 2151 1935 2119 2141 2309 2415 2575 2803 3016 2517 1910 1582 1462 1566 1372 1333 955 501 331 607 751 752 435 24 4 55
703 862 1208 1363 1571 1785 1697 1729 1870 1957 2029 2298 2506 2604 2675 2360 1931 1695 1692 1550 1347 1083 911 944 812 727 973 941 780 301 21 0 0
1291 1277 1305 1221 1170 1273 1296 1652 1945 2156 2631 2707 2756 2832 2344 1920 1774 1807 1952 1765 1537 1134 1086 885 882 1010 761 745 689 652 9 0 0
542 666 856 977 1152 1567 1974 1920 2013 2842 2916 2858 2920 2445 1865 1693 1738 1720 1591 1729 1173 754 653 769 942 980 1039 950 795 457 206 17 1
861 812 766 943 1246 1616 1880 2286 2716 2505 2805 2872 2297 1990 1924 2163 1832 1586 1458 924 646 970 866 522 887 864 744 721 380 500 347 45 68
1045 1012 1031 1134 1171 1583 1967 2236 2359 2374 2472 2583 2393 2161 2118 1979 1660 1824 1170 601 149 0 0 0 0 0 54 81 16 0 0 0 0
229 754 834 1016 1073 1424 1809 2047 2346 2387 2441 2510 2193 2062 1898 1785 1532 1409 1182 931 840 495 0 0 0 0 0 1 0 0 0 0 0

GFSFLT1_con_mlcape_006.txt.gz
CAPE
209 430 393 282 442 612 1017 1073 1296 1735 2412 2821 3323 3008 3030 2573 1938 1940 1661 1913 1282 1549 676 592 1167 922 1445 1225 350 115 106 152 67
41 365 477 379 536 732 1026 1128 1257 1654 2437 3039 3489 3415 3372 3181 2571 2324 2018 1957 1843 1549 952 1084 1360 1155 1550 1153 548 250 219 53 60
5 34 486 558 472 961 1093 1245 1255 1750 2045 3053 3680 3532 3530 3427 3312 2598 2349 1783 1873 1362 1639 868 830 1309 942 1237 500 375 286 55 113
0 0 309 372 615 666 1162 1412 1406 1636 1964 2819 3458 3641 3415 3423 3402 3211 2497 3088 2639 1896 1696 1189 951 601 1138 1024 751 441 294 39 19
0 2 33 151 654 620 929 1207 1339 1610 2017 2527 3115 3353 3317 3362 3397 3455 3218 2545 3057 2371 2564 1715 1043 1175 1192 1145 505 494 321 25 0
8 0 108 140 532 680 756 924 1120 1451 1819 2269 3052 3173 3154 3214 3302 3409 3306 3116 2661 2936 2523 2093 1919 1361 1289 845 345 485 275 193 55
13 0 295 271 363 816 703 877 1026 1300 1660 1983 2538 2931 2968 3030 3009 3125 3064 3197 3107 2812 2795 2417 2328 1768 1433 942 387 354 280 353 236
4 9 226 161 510 631 898 988 1083 1123 1238 1479 1720 2480 2963 3029 3203 3099 3093 3031 3135 3065 3173 3052 2804 1919 1390 914 325 393 376 324 264
2 0 0 454 312 780 1359 1216 1208 1138 1060 1249 1428 1840 2499 2813 3129 3375 3225 3097 3211 3222 3399 3083 2658 1500 962 571 246 212 166 456 383
19 8 0 3 784 933 1327 1819 1367 1223 1161 1340 1331 1796 2366 2511 3007 3488 3345 3261 3220 3420 3247 2700 1981 1159 573 369 265 100 59 281 280
6 44 0 0 0 1135 1502 2108 1842 1668 1550 1508 1528 2322 2499 2755 3250 3637 3486 3353 3271 3383 2879 2344 1786 963 319 123 191 12 6 0 44
0 0 94 9 0 76 1434 1895 2025 2323 2068 1748 2608 2364 3234 3280 4019 3996 3741 3432 3211 2939 2490 2055 1696 971 321 206 230 56 0 0 0
3 0 0 46 227 361 1562 2177 2256 2423 2754 2564 2324 3218 3589 4078 4397 3972 3385 2954 2542 2171 1836 1703 1750 1326 562 351 408 135 14 0 0
677 45 76 130 755 1820 2192 2543 2660 2597 2778 3103 3014 3740 3887 4329 4194 3582 2743 2278 1869 1532 1664 2069 1615 898 555 392 307 572 107 6 26
270 671 409 1211 2408 2625 3070 2946 3062 3222 3233 3508 3677 3769 4002 4186 3525 2751 2189 1800 1729 1834 1547 1298 1056 758 573 700 719 659 283 47 35
1218 1100 1373 1878 2850 3041 3045 3171 3124 3056 3117 3182 3304 3414 3759 3456 2734 2153 1840 1885 1544 1317 1283 1189 972 912 939 805 760 655 215 51 6
1498 1730 1923 2090 2188 2370 2650 2693 2928 3138 3026 3176 3221 3344 2914 2420 2119 2097 2079 1955 1609 1435 1319 1221 996 1142 706 723 698 734 307 92 6
1743 1760 2083 2416 2527 2884 2933 3479 3263 3381 3508 3494 3097 2600 2267 1951 1885 1895 1972 963 844 1027 264 441 1076 791 625 869 829 815 640 426 210
1365 1657 1874 2100 2407 2632 2561 2841 2999 3222 3306 2909 2563 2250 1848 1946 1798 1638 933 490 124 0 3 0 0 0 326 8 45 202 206 3 0
835 1350 1644 2014 2265 2565 2638 2670 2622 2766 2837 2441 2146 2106 2311 1916 1722 1526 1130 697 467 213 0 0 0 0 0 0 0 0 0 0 0

GFSFLT1_con_mlcape_009.txt.gz
CAPE
92 69 15 5 155 443 662 697 1081 1431 1677 1647 2019 2004 1927 1495 2021 1414 919 1365 1597 1211 1144 1381 1199 1019 755 440 85 159 62 66 33
53 13 57 15 93 392 661 736 1207 1380 2040 2067 2172 2378 2283 1996 1731 1696 1446 1272 1474 1449 1177 1352 1155 933 838 639 352 60 86 57 1
43 2 17 94 134 366 652 791 1087 1452 1913 2228 2497 2342 2550 2238 2139 1648 1547 1505 1039 1884 1050 791 874 1058 1013 1005 529 114 109 49 15
36 4 43 178 195 345 717 932 1138 1409 1911 2443 2611 2785 2690 2470 2181 2072 1702 1734 1349 1582 1495 1066 957 879 1201 1027 563 256 178 62 14
31 1 29 143 295 467 889 1061 1074 1386 2189 2429 2680 2844 2907 2719 2555 2556 2151 1606 1927 1818 1506 1317 1168 1036 782 997 751 389 228 126 68
7 4 274 470 383 770 1011 1109 1116 1477 2013 2635 2941 3096 3043 3020 2772 2842 2696 2078 2182 2409 1544 1532 1126 787 779 731 713 573 384 192 65
1 4 83 503 554 814 1064 1271 1270 1276 1844 2547 2970 3299 3218 2970 2866 2836 2996 2901 2164 2602 2661 2067 1396 1046 777 779 709 606 470 330 191
2 13 222 460 596 651 1013 1240 1352 1414 1605 1923 2761 3061 3206 2974 2889 2929 3039 3025 3040 2288 2577 2443 2151 1500 1192 951 760 585 439 351 271
2 45 217 282 570 641 715 1009 1206 1406 1589 1881 2209 2846 2999 2920 2931 2974 3072 3105 3040 3035 2523 2637 2367 2045 1607 1324 880 566 396 377 314
4 2 317 467 413 873 785 867 1048 1308 1499 1658 2031 2452 2851 2890 2766 2950 2945 3037 2972 3035 3013 2878 2777 2314 1872 1501 1019 463 353 362 277
1 1 0 135 152 414 1267 1024 1007 1178 1375 1680 1867 1988 2564 2735 2899 2801 3055 3075 3045 3123 3103 3069 2817 2437 1859 1461 823 328 170 142 207
0 0 0 0 145 330 470 1470 1229 1088 1231 1480 1607 1712 1958 2493 2618 2957 3206 3217 3175 3215 3136 2829 2652 2078 1576 868 450 244 70 15 69
34 0 0 0 0 3 437 1336 1626 1372 1197 1277 1301 1436 1723 2241 2471 2853 3399 3337 3280 3072 2731 2250 1986 1757 1074 582 311 112 27 5 6
630 542 96 5 0 0 298 1062 1805 1724 1474 1277 1457 1363 2309 2676 3038 3530 3402 3134 2851 2341 2239 2153 1952 1569 1012 477 230 112 44 0 9
755 636 460 1545 498 233 524 1585 2153 2228 1793 1722 2127 2662 3242 3610 3554 3263 2989 2680 2347 2285 1989 1751 1564 1363 851 380 252 273 50 19 53
1095 1441 1815 2220 2494 2749 2643 2358 2554 2932 3257 3045 3038 3705 3725 3309 3043 2958 2549 1993 1798 1642 1395 1262 1083 883 706 630 610 476 348 195 33
1840 2107 2613 2713 2893 3238 3381 3374 3295 3336 3574 3608 3729 3515 3237 2856 2714 2190 1740 1477 1374 1348 1253 1084 942 813 651 601 630 463 214 4 0
1514 2167 2571 2760 2882 3139 3254 3345 3393 3422 3525 3560 3309 2969 2377 2188 1999 1850 1052 419 691 832 316 833 922 1025 801 492 599 610 386 110 43
308 562 494 2577 3042 3228 3304 3333 3249 3125 2908 2761 2614 2206 2014 1956 1645 885 569 410 142 0 7 11 215 331 427 85 216 518 364 126 38
3 20 0 837 1995 2420 2584 2682 2705 2593 2484 2422 2314 2163 1929 1712 1238 980 799 597 540 288 0 0 0 0 2 2 1 22 59 12 0

GFSFLT1_con_mlcape_012.txt.gz
CAPE
0 0 7 15 10 70 83 215 520 783 905 829 978 1047 1199 1278 1247 1085 897 705 896 996 1147 1413 1223 1091 917 556 230 10 0 0 0
0 0 0 0 34 68 145 240 494 753 1037 999 1096 1195 1066 1227 1326 1209 1079 1037 1161 924 1067 1147 1037 1012 1027 646 211 49 1 0 0
9 1 0 0 1 108 258 236 548 888 1095 1089 1236 1363 1315 1234 1313 1440 1319 1149 1177 1357 1221 1167 1040 1141 1047 660 209 158 40 6 5
28 19 16 0 9 98 258 367 736 1015 1208 1220 1439 1612 1558 1572 1458 1341 1548 1468 1396 1280 1185 975 1079 1029 943 597 321 196 85 9 5
140 127 34 40 22 71 266 524 858 1000 1433 1403 1483 1697 1785 1703 1785 1742 1418 1370 1380 1408 1331 1160 1148 1037 1022 785 513 303 199 77 5
19 27 10 1 46 91 295 550 779 1156 1418 1639 1817 1852 1965 2064 2007 2013 1740 1472 1556 1438 1326 1049 1026 735 889 906 706 521 290 139 9
56 38 4 0 62 134 425 624 813 1209 1387 1941 1961 2215 2153 2129 2183 2154 2102 1814 1567 1547 1499 1249 1232 1041 869 971 809 595 450 258 137
56 101 0 0 39 220 509 786 880 1164 1521 1804 2126 2242 2390 2266 2287 2415 2410 2202 1846 1745 1845 1448 1441 1176 1120 886 874 728 533 401 229
2 7 0 21 86 285 505 822 915 1068 1462 2012 2201 2375 2375 2473 2532 2584 2566 2597 2446 1988 1962 2078 1730 1380 1074 977 887 743 570 502 397
0 0 0 81 227 428 605 889 1012 1053 1440 1958 2383 2389 2615 2725 2619 2612 2643 2702 2715 2609 2229 2091 2071 1832 1584 1352 1118 838 533 487 496
0 0 4 91 427 542 740 934 1099 1177 1321 1784 2301 2412 2594 2862 2797 2637 2683 2737 2748 2733 2729 2395 2313 2036 1909 1755 1128 841 677 591 434
0 0 0 74 459 658 631 822 1035 1267 1365 1591 1879 2249 2413 2641 2768 2623 2705 2670 2782 2710 2787 2644 2660 2383 2048 1674 116 682 560 299 271
0 0 0 0 0 33 491 677 851 1016 1261 1511 1654 1907 2173 2495 2666 2593 2583 2714 2757 2785 2810 2808 2574 2427 1920 320 295 471 374 226 80
213 78 0 0 0 0 3 527 865 815 975 1222 1463 1731 1982 2223 2587 2605 2594 2770 2824 2898 2765 2740 2535 2082 1620 699 1125 766 448 17 3
407 155 244 399 12 0 0 84 599 744 810 931 1246 1528 1727 1758 2309 2522 2750 2850 2792 2695 2531 2476 2032 1709 1404 1004 885 582 144 10 2
1702 1548 1303 1355 795 330 279 363 803 762 916 1041 1073 1229 1498 1773 2240 2593 2697 2639 2621 2281 2179 1886 1816 1649 1245 876 562 216 29 0 0
1138 1340 1464 1344 1901 2417 1339 1138 1104 1335 1152 1233 1367 1792 2343 2486 2381 2358 2396 2150 2046 1707 1741 1599 1275 1190 966 675 361 139 25 0 0
804 585 207 79 82 316 755 2194 2349 2462 2312 2537 2408 2337 2390 2231 1785 1999 1409 675 753 974 651 1028 1060 761 685 605 495 361 220 77 7
0 0 0 0 0 0 0 67 561 3326 3090 2644 2327 2137 2168 2058 1187 672 474 281 40 0 15 300 558 572 483 149 395 302 115 5 0
0 0 0 0 0 0 0 60 8 1563 2369 2297 2453 2335 1975 1278 941 635 143 149 72 365 0 0 55 332 228 194 151 129 62 0 0

GFSFLT1_con_mlcape_015.txt.gz
CAPE
0 0 4 16 43 57 208 246 445 509 498 589 903 971 922 919 878 772 735 714 671 542 792 1002 1204 1159 1032 859 492 154 29 0 0
0 0 0 5 21 7 80 169 215 498 509 472 775 976 1010 950 960 936 850 793 766 754 713 1096 1188 1093 1152 929 684 171 34 1 0
0 0 0 2 23 23 20 87 141 369 557 531 502 776 986 1002 938 981 931 830 792 772 754 963 1000 1099 1159 857 584 254 73 1 0
0 0 0 0 25 30 27 49 66 284 580 610 586 662 846 929 1001 1036 991 903 901 783 870 939 953 983 1163 764 560 339 115 8 0
0 0 0 0 8 18 56 59 72 262 502 700 667 761 883 879 863 996 1111 965 953 903 1047 1030 1127 1050 1005 789 625 488 282 101 38
0 0 0 0 0 0 11 49 95 279 562 713 829 951 1011 1077 1071 1001 1072 1129 1146 1027 1089 1105 1017 985 1004 872 772 518 362 164 166
0 0 0 0 0 0 8 24 149 363 657 842 960 1130 1243 1241 1269 1271 1119 1153 1256 1247 1176 1197 1117 1006 1055 1046 911 639 400 289 290
0 0 0 0 0 0 2 13 173 461 724 1067 1099 1166 1412 1398 1429 1496 1502 1397 1302 1276 1244 1237 1132 1070 1032 1168 1038 800 602 423 429
0 0 0 0 8 14 22 75 207 415 869 1119 1364 1381 1445 1611 1649 1706 1733 1722 1612 1463 1372 1410 1214 1141 1007 910 971 779 607 530 356
0 0 0 0 0 0 18 124 323 443 862 1150 1590 1576 1703 1842 1817 1847 1933 1978 1903 1746 1580 1585 1292 1156 1054 978 1052 1026 733 504 526
0 0 0 0 0 0 59 222 492 583 922 1258 1551 1741 1854 2057 2093 1947 2090 2228 2145 2037 1824 1816 1547 1307 1132 1112 1135 900 773 628 231
0 0 0 0 0 12 147 348 650 833 901 1256 1713 1827 1996 2178 2281 2217 2310 2288 2368 2368 2195 1896 1883 1582 1452 1513 1412 998 987 676 87
0 0 0 0 0 39 257 542 884 974 1002 1269 1618 1953 2049 2264 2445 2406 2399 2416 2416 2496 2508 2203 1986 2001 1822 1858 1704 1080 999 379 371
35 1 0 0 0 109 385 643 963 1115 1166 1178 1455 1837 2144 2337 2547 2596 2501 2470 2476 2568 2583 2470 2270 2250 2089 2041 1843 898 499 151 634
562 492 742 1423 1357 714 200 63 574 1012 1150 1233 1349 1591 1827 2227 2394 2668 2602 2514 2488 2579 2642 2639 2566 2387 1842 1590 1322 903 321 502 378
568 660 586 349 542 560 761 1826 396 476 776 1138 1353 1462 1549 1677 2094 2460 2463 2489 2561 2648 2734 2692 2506 1974 1539 1262 1008 837 517 161 31
433 596 662 401 295 204 91 0 1436 1564 1309 1110 955 1228 1429 1551 1796 2213 2346 2543 2646 2638 2619 2458 2037 1519 1144 918 687 556 29 6 0
66 39 48 224 411 313 90 0 0 6 454 1191 1114 1027 1196 1388 1754 2279 2358 1790 2301 2416 1813 1731 1319 966 728 723 654 385 78 5 0
0 0 0 0 0 0 0 0 4 90 82 62 1476 1308 1559 1854 1975 1109 882 985 722 179 409 621 471 96 0 189 148 52 24 8 2
21 7 2 28 118 51 75 278 120 0 0 0 555 1644 2040 1473 701 665 849 911 871 547 149 14 0 29 126 236 220 45 80 1 0

GFSFLT1_con_mlcape_018.txt.gz
CAPE
5 69 193 268 264 164 206 226 151 237 412 476 556 506 456 453 434 369 416 434 411 434 204 457 809 844 910 879 717 438 197 93 0
0 0 0 31 170 163 126 128 150 254 382 460 542 575 522 487 489 468 473 501 478 539 461 525 613 767 887 941 779 555 329 116 5
0 0 0 0 0 17 48 98 121 237 353 393 449 610 653 633 606 595 586 598 565 571 621 712 622 823 1003 970 771 566 404 147 17
0 0 0 0 0 2 9 30 97 181 354 414 403 648 760 767 737 749 726 671 643 659 716 747 828 767 985 958 796 661 528 263 89
0 0 0 0 0 0 1 3 19 107 275 418 403 476 805 858 857 870 811 733 721 695 726 764 847 751 942 915 756 719 651 497 187
0 0 0 0 0 0 0 0 0 41 153 363 478 451 611 861 922 917 879 803 807 767 791 777 815 816 839 892 733 783 662 549 422
0 0 0 0 0 0 0 0 0 8 105 296 518 575 566 703 837 899 955 925 866 789 846 830 861 895 951 1013 986 816 717 568 567
0 0 0 0 0 0 0 0 11 53 109 285 515 617 676 759 862 857 901 1030 997 964 918 926 938 896 1043 1080 1005 906 725 633 674
0 0 0 0 0 0 0 0 45 143 196 349 559 714 737 892 1038 1085 1024 984 1053 1081 1048 1090 1015 929 966 1104 1076 944 816 823 771
0 0 0 0 0 0 0 5 123 191 313 514 666 773 925 1090 1215 1285 1312 1239 1135 1097 1119 1123 1116 1078 1004 1033 1186 986 940 920 976
0 0 0 0 0 0 0 11 78 246 331 598 858 935 1035 1257 1424 1437 1479 1517 1371 1283 1236 1173 1206 1196 1118 1041 1082 1004 974 827 1033
0 0 0 0 0 0 0 0 69 188 388 660 904 1142 1239 1352 1530 1592 1629 1687 1638 1595 1498 1367 1383 1302 1205 1211 1171 992 835 763 885
0 0 0 0 0 0 0 0 1 164 413 717 884 1309 1424 1547 1650 1692 1722 1877 1890 1849 1755 1619 1579 1400 1285 1313 1416 906 715 780 847
2 16 0 0 0 0 0 32 246 372 528 719 974 1336 1666 1770 1849 1944 1945 2005 2148 2164 2104 1979 1797 1635 1480 1542 1479 1034 746 592 803
286 394 762 468 115 191 94 59 422 651 751 828 1034 1319 1624 1838 2054 2184 2212 2263 2233 2343 2402 2392 2120 1866 1841 1710 1497 1102 648 757 927
201 172 108 5 23 208 741 1231 167 483 836 855 815 1110 1431 1896 2115 2303 2325 2428 2417 2493 2510 2483 2323 2120 2100 1686 742 806 882 610 573
40 1 0 0 0 0 0 0 0 0 1 947 1377 888 987 1458 2011 2291 2543 2576 2534 2572 2614 2576 2289 2228 2120 1532 867 734 279 173 112
0 0 0 0 0 0 0 0 0 0 0 0 22 621 937 1124 1421 1833 2328 2507 2554 2610 2684 2592 2493 2233 1429 1082 795 296 7 9 7
2 16 1 13 70 36 49 41 0 0 0 0 0 0 190 695 1180 1487 2090 1459 1271 1200 2165 2066 1757 1150 740 323 57 6 0 41 17
9 43 77 85 138 312 265 240 52 0 0 0 0 0 267 889 1070 1240 1043 1258 1316 1272 427 569 432 463 270 10 0 0 0 0 0

GFSFLT1_con_mlcape_021.txt.gz
CAPE
229 541 652 752 827 885 794 729 665 531 523 660 751 758 757 923 1014 1058 1077 1035 901 953 975 1040 1250 1393 1553 1435 1424 1325 1065 777 570
0 77 415 572 771 872 798 839 733 636 537 665 813 802 787 808 999 979 987 1057 1087 1003 1098 1121 1287 1249 1440 1502 1470 1390 1176 914 674
0 0 14 221 611 707 730 715 844 688 617 660 817 898 914 898 935 998 1054 1155 1070 1053 1149 1053 1058 1108 1424 1541 1454 1476 1282 1065 777
0 0 0 0 216 564 694 626 681 749 645 731 920 992 1050 1004 1013 1020 1010 1105 1158 1116 1191 1174 1250 1273 1244 1353 1365 1464 1345 1223 912
0 0 0 0 15 161 335 588 538 635 671 757 877 1008 1112 1096 1140 1176 1131 1125 1190 1241 1147 1218 1348 1426 1408 1407 1587 1526 1374 1258 1066
0 0 0 0 1 12 70 203 482 574 602 661 820 1016 1094 1204 1259 1298 1280 1246 1308 1352 1305 1297 1342 1448 1437 1489 1527 1485 1344 1380 1318
0 0 0 0 0 0 3 46 197 325 548 648 797 962 1062 1189 1267 1292 1380 1423 1410 1411 1401 1314 1328 1430 1497 1544 1528 1470 1347 1272 1393
0 0 0 0 0 0 0 5 118 216 333 634 767 981 1001 1141 1345 1457 1525 1514 1466 1475 1488 1384 1356 1371 1472 1514 1496 1437 1408 1242 1270
0 0 0 0 0 0 0 1 52 196 284 499 754 946 922 1076 1363 1533 1568 1600 1571 1542 1490 1484 1466 1412 1442 1422 1418 1278 953 1254 1475
0 0 0 0 0 0 0 0 20 176 314 536 707 838 1095 1236 1301 1438 1554 1614 1648 1543 1551 1510 1493 1454 1494 1471 1484 1010 727 862 1518
0 0 0 0 0 0 0 0 52 271 429 505 666 880 1099 1264 1325 1393 1537 1536 1599 1690 1713 1619 1610 1513 1509 1536 1606 1062 683 679 1174
0 0 0 0 0 0 0 0 0 294 454 590 744 826 995 1186 1350 1400 1571 1641 1614 1705 1776 1856 1781 1800 1655 1569 1631 1173 753 655 1115
0 0 0 0 0 0 0 0 0 179 438 721 747 888 1100 1483 1652 1685 1686 1823 1966 1955 1868 1829 1860 1892 1815 1669 1651 1330 859 778 1247
0 0 0 0 0 0 0 8 11 37 283 468 893 1301 1532 1654 1753 1823 1902 2042 2087 2206 2203 2116 2034 1967 1922 1802 1604 1905 943 770 1319
2 7 0 0 0 0 137 340 576 602 696 1121 1429 1556 1722 1912 1937 2003 2142 2229 2363 2419 2361 2289 2291 2172 2136 1985 1953 1527 1018 719 1036
428 301 277 846 494 52 83 471 935 949 1075 1056 1289 1552 1743 2014 2250 2363 2414 2493 2510 2561 2581 2415 2403 2221 2078 1927 1792 1839 845 616 745
70 0 0 0 0 25 125 267 416 644 842 1640 1565 1480 1766 2096 2267 2472 2673 2718 2789 2766 2633 2562 2543 2411 2169 2032 1893 1518 592 611 359
0 0 0 0 14 14 4 12 1 0 0 0 8 436 1119 1439 2023 2352 2660 2820 2938 2871 2892 2728 2542 2580 2420 2107 1120 571 371 367 20
0 11 135 237 397 300 159 0 0 0 6 0 0 0 15 289 848 1489 2090 2503 2896 1838 1789 2474 2363 2366 2345 1629 758 247 177 60 5
29 62 89 72 147 200 349 458 387 417 339 295 132 79 55 261 1073 1124 1057 1897 2535 2053 1295 1104 1846 1844 1347 848 136 266 150 98 0

GFSFLT1_con_mlcape_024.txt.gz
CAPE
68 638 792 797 1038 1159 1071 799 1034 1110 1375 1732 1854 1714 1812 2040 2049 1657 1660 1690 1478 1457 1080 1016 1080 1553 1840 1912 1902 2114 2140 2083 1702
0 350 730 826 868 1097 1244 1201 1216 1375 1509 1828 1862 1674 1948 2038 2102 1936 1457 1652 1916 1580 1608 1261 1361 1498 1890 1862 1969 2045 2142 1957 1849
0 17 473 674 864 941 1190 1371 1379 1450 1567 1610 1704 1798 1844 1818 1901 2136 2014 2099 1935 1890 1689 1678 1365 1774 1772 1774 1928 2078 2186 1824 1851
0 0 69 344 578 795 940 1225 1494 1580 1632 1664 1671 1848 1979 1918 1833 1851 2000 1989 2211 2274 1944 1971 1960 1890 1844 1692 1898 2105 2275 2099 1630
0 0 0 7 95 341 755 1012 1286 1463 1610 1643 1684 1725 2086 2066 2065 1988 1828 2052 2117 2299 2100 2157 2155 2068 2025 1809 1747 2023 2211 2243 1598
0 0 7 43 32 62 392 793 1150 1138 1365 1508 1509 1822 1877 1939 1982 2030 2010 2233 2140 2294 2373 2341 1963 2227 2266 2092 1870 1896 2084 2284 2150
0 0 0 0 0 8 130 449 946 1333 1062 1181 1299 1404 1720 1965 2208 2137 2199 2312 2302 2338 2471 2445 2335 2370 2495 2319 2131 1953 1938 2212 2202
0 0 0 0 0 38 334 363 803 1374 1277 1058 1104 1407 1518 2005 2277 2487 2428 2373 2483 2450 2545 2507 2520 2456 2532 2550 2187 1882 2084 2153 2127
0 0 0 0 0 0 0 129 626 848 1199 1055 1228 1519 1667 1891 2310 2524 2518 2564 2574 2562 2540 2625 2595 2429 2554 2501 2249 1713 1462 2039 2154
0 0 0 0 0 0 0 0 240 574 997 1094 1281 1517 1905 2029 2293 2441 2588 2595 2659 2584 2585 2645 2633 2639 2609 2643 2644 1673 1284 1338 1922
0 0 0 0 0 0 0 0 0 415 865 1289 1296 1784 1894 2156 2219 2417 2532 2641 2691 2733 2729 2604 2712 2764 2708 2686 2779 2143 1299 1126 1595
0 0 0 0 0 0 0 0 0 46 880 1236 1375 1749 1750 2007 2119 2175 2406 2696 2763 2830 2735 2770 2803 2862 2869 2772 2712 2229 1600 1156 1481
0 0 0 0 0 0 0 0 0 185 604 1019 1422 1768 1919 2105 2296 2406 2380 2589 2826 2898 2879 2811 2618 2737 2862 2897 2768 2497 1689 1381 1603
0 0 0 0 0 0 0 89 99 122 652 903 1558 1827 1862 2116 2468 2562 2580 2727 2935 2864 2804 2548 2814 2843 2921 3006 2826 2925 1724 1380 1753
49 0 49 402 0 0 376 906 856 478 738 1342 1777 1916 2002 2304 2608 2544 2412 2943 3083 2914 2851 2879 2830 2905 2929 2914 3093 2561 1770 1429 1405
317 447 828 1079 451 1241 1590 1801 1835 1748 1787 1802 1909 2083 2203 2427 2716 2751 2601 2959 3043 3025 3083 2737 2877 2768 2825 2834 2865 3012 2139 1191 1385
857 616 701 896 1342 1283 1620 2421 2650 2847 2578 2389 2507 2632 2780 2826 2990 3017 2916 2767 2884 2892 2861 3051 2819 2833 2944 2878 2792 2805 2644 1282 800
371 242 343 741 829 869 904 860 747 703 838 1268 2589 2685 2675 2828 2853 2897 2975 3115 2842 2853 2968 2882 3099 2991 2876 2982 2816 2824 2491 1142 522
427 617 799 894 848 787 492 499 710 989 954 1010 869 717 656 922 1236 1511 2128 2362 2831 2218 2214 2027 2153 2189 2653 2912 2756 2243 1765 692 651
105 236 306 423 494 936 934 332 277 425 1038 895 896 936 875 974 973 1388 1228 1326 1595 1859 2093 2298 2144 2070 1882 1902 2193 1485 1051 518 367

GFSFLT1_con_mlcape_027.txt.gz
CAPE
88 129 524 837 1059 1075 703 577 824 1082 1787 2521 2704 2480 2387 2167 2250 1765 1355 1516 1131 1048 798 735 1109 2183 2009 2078 2100 2094 2207 2094 1996
14 73 346 795 1021 1208 1060 711 1057 1312 1738 2411 2736 2530 2674 2622 2474 2105 1653 1570 1804 1885 1578 1047 1481 1962 2220 2152 2174 2285 2317 1817 2239
0 3 235 682 933 1197 1322 1083 1068 1454 1806 2416 2687 2499 2666 2716 2871 2819 2305 2300 2387 1865 1959 1944 1894 1623 1873 2147 2234 2381 2434 1895 2092
0 0 116 593 909 1081 1320 1345 1202 1335 1783 2216 2630 2561 2555 2451 2578 2639 2781 2488 2694 2502 2586 2731 1972 2438 2146 2262 2351 2496 2583 2186 1863
0 0 11 430 688 842 931 1260 1462 1524 1604 1733 2501 2531 2729 2628 2601 2573 2633 2719 2507 2869 2738 2759 3068 2625 2685 2607 2428 2509 2616 2575 1635
0 0 3 107 467 557 754 949 1405 1574 1845 1788 1795 2324 2497 2920 2780 2718 2499 2749 2827 2839 2966 2962 2843 2949 3017 2901 2580 2459 2759 2795 2596
0 0 0 27 28 36 369 706 1254 1748 1688 1802 1848 1972 2107 2437 2904 2771 2866 2782 3027 2955 3065 3094 3028 2924 3075 3106 3015 2626 2649 2727 2772
0 0 0 0 0 20 100 528 1386 1690 1560 1726 1852 2151 2264 2375 2819 3087 3141 3078 3037 3178 3151 3197 3188 3127 3098 3380 3248 2640 2620 2471 2719
0 0 0 0 0 0 177 325 972 1372 1990 1702 1631 2220 2258 2453 2725 3168 3312 3318 3320 3439 3264 3371 3377 3251 3110 3125 3259 2527 1992 2541 2599
0 0 0 0 0 0 0 153 339 740 1552 1896 1761 1847 2472 2353 2746 3034 3382 3570 3542 3497 3533 3521 3478 3394 3358 3234 3325 2604 1836 1823 2565
0 0 0 0 0 0 0 0 0 233 528 1749 2081 2231 2235 2637 2570 3109 3404 3575 3603 3684 3667 3551 3581 3593 3564 3429 3416 2990 2126 1676 2012
0 0 0 0 0 0 0 0 0 0 477 1204 1983 2165 2610 2489 2849 3051 3440 3518 3595 3712 3696 3700 3588 3672 3655 3586 3504 3085 2599 1867 2003
21 1 0 0 0 0 0 0 0 0 0 561 1854 2333 2552 2881 3052 3179 3435 3571 3610 3720 3764 3734 3654 3626 3674 3673 3698 3480 2759 2303 2392
407 403 302 41 116 106 0 0 0 36 84 343 1299 1982 2383 3129 3254 3507 3502 3490 3674 3868 3877 3573 3687 3584 3651 3734 3735 3774 3032 2351 2775
709 625 362 6 78 514 128 0 301 722 644 1037 1698 2066 2484 2988 3274 3252 3149 3671 3727 3863 3879 3794 3635 3713 3541 3651 3794 3559 3323 2510 2426
1034 798 898 863 951 708 944 1838 1897 1580 1866 1821 2173 2581 2912 3147 3344 3421 3262 3583 3756 3674 3713 3293 3272 3237 3417 3475 3384 3813 3302 2525 2206
1090 1110 1069 1033 1401 1660 2162 2973 2780 2926 3384 2791 2454 2763 2869 2991 3145 3324 3398 3092 3430 3240 3137 3200 3250 2969 3200 2948 3164 3291 3719 2857 1865
1173 1000 819 1350 1649 1965 1980 1996 1868 1855 2066 3067 3154 3283 3264 3275 3198 3240 3465 3455 2943 3108 3217 3028 3151 3189 2969 2995 3139 3198 3296 3346 3175
1245 1211 1392 1672 1765 1457 1311 1515 1625 1679 1716 1784 1966 2881 3092 2986 2865 3106 3183 3138 3420 2826 2654 2399 2281 2001 2039 2658 2623 2244 2048 2573 2576
444 532 701 1051 1358 1151 732 551 866 1258 1430 1525 1609 1729 1479 1232 817 1104 1276 1642 1855 1951 2062 2026 2138 1678 1013 655 475 944 1110 1250 1543

GFSFLT1_con_mlcape_030.txt.gz
CAPE
55 217 602 1021 1240 1087 833 791 981 1353 2204 2231 2245 2080 2298 1631 2477 1632 752 1941 1114 1049 1235 1015 1912 1544 2102 2091 2047 1810 2374 2064 1918
59 78 222 797 1253 1290 1038 810 969 1252 1929 2380 2511 2125 2506 2210 1657 2425 1085 1201 1798 1609 1139 1400 1358 1807 1773 1879 2012 2238 1847 2248 2357
27 53 132 695 1140 1452 1225 901 989 1142 1766 2420 2561 2678 2463 2620 2052 2182 2170 1075 1702 1427 1812 1118 1776 2203 2093 2261 2338 2642 2367 2483 2021
1 105 245 571 1209 1480 1472 1125 1087 1176 1372 2282 2760 2794 2733 2654 2772 2136 1992 2201 1746 2322 1537 2562 1436 2820 2549 2390 2389 2474 2658 2368 2171
0 9 364 506 887 1409 1680 1427 1222 1285 1520 2003 2678 3072 3058 2856 2820 2992 2512 1769 2118 2351 2908 1878 2855 2267 2388 2625 2429 2500 2529 2623 1937
0 1 58 450 910 1160 1596 1697 1555 1506 1584 1777 2592 3041 3160 3062 2958 2893 2949 2899 2013 2529 2541 3141 2403 3083 2710 2487 2588 2421 2737 2697 2615
0 2 10 475 758 1117 1426 1712 1842 1771 1723 1878 2066 2846 3120 3097 3146 3000 2976 2919 2976 2355 2854 2691 2870 2816 3053 3096 2830 2780 2660 2751 2778
5 29 201 438 676 1205 1190 1474 1818 2033 1980 1975 2046 2107 2901 2977 3057 3275 3042 3036 3023 3196 2810 2866 2913 2923 3005 3022 3211 3035 2803 2691 2802
0 0 14 19 32 74 284 1575 1878 1969 2077 2298 2212 2227 2371 2689 2904 3067 3445 3260 3216 3230 3294 3216 3235 3283 3144 3101 3223 3153 2793 2745 2798
0 0 0 0 0 0 16 199 1900 2132 2114 2163 2465 2429 2588 2613 2825 2987 3228 3478 3443 3385 3419 3488 3413 3447 3465 3225 3261 3061 2772 2625 2787
0 0 0 0 0 0 0 0 248 1089 2213 2172 2092 2378 2477 3167 3033 3056 3276 3469 3626 3673 3671 3688 3624 3638 3672 3564 3513 3156 2754 2553 2628
0 0 0 0 0 0 0 0 22 279 426 1913 2215 1994 2296 2314 3248 3263 3419 3586 3742 3854 3912 3880 3884 3815 3842 3837 3713 3366 2921 2501 2583
529 573 547 510 306 145 14 10 0 0 606 1460 1742 1883 2113 2759 2649 3175 3349 3711 3928 4018 4094 4076 4054 4024 3943 3919 3929 3744 3152 2739 2912
652 743 635 524 399 257 424 337 36 110 39 372 1810 2155 2467 2863 3298 3116 3430 3625 4062 4139 4202 4191 4098 4063 4096 4010 3940 3975 3498 2879 3245
532 964 887 546 364 104 403 632 215 50 290 655 976 1749 2634 3136 3267 3498 3649 3752 4105 4170 4096 4086 4032 4121 4037 4078 4116 3925 3783 3067 3002
1106 1369 1151 1431 1400 1288 1446 1291 2064 1885 2142 2340 1847 2951 2729 2935 3576 3805 3409 3887 3947 4092 4084 4063 4059 4027 3961 4157 4044 3961 3764 3272 2939
757 1659 1371 1055 1269 1683 2910 3684 3594 3225 3597 2921 2750 3335 3513 3517 3839 3941 3912 3804 4061 3996 3943 3928 3886 3847 3892 3816 3698 3702 3760 3306 2661
251 1112 2083 2367 2286 2340 2626 2527 2463 2387 2619 3294 3430 3200 3480 3737 3691 3769 3942 3887 3400 4074 3803 3633 3712 3659 3478 3291 3427 2120 855 1466 2303
186 481 1070 1755 2208 1919 2010 2074 2008 2150 2239 2500 3296 3792 3745 3650 3456 3578 3434 3761 3529 3361 2903 1979 1266 912 1322 1420 181 1 54 330 969
157 395 804 908 1712 1463 1338 1188 1402 1649 1922 2141 2416 2252 2279 1545 2037 1907 3915 3530 3962 3848 1381 768 449 18 0 0 0 0 0 0 0

GFSFLT1_con_mlcape_033.txt.gz
CAPE
94 131 418 533 445 446 457 570 1074 1734 1529 1413 1667 1467 975 932 1845 1241 760 886 539 546 865 1227 1159 1278 1828 1623 1420 1231 1389 1229 1323
179 579 820 510 508 526 392 634 936 1480 1779 1557 1699 1749 1515 954 1114 2007 974 469 1083 872 1108 931 1349 1372 1629 1771 1535 1203 1572 1632 1377
74 756 487 721 635 595 502 555 876 1134 1908 1680 1615 1602 1701 1403 931 1316 1914 879 485 1421 848 1046 1106 1403 1560 1646 1706 1517 1299 1996 2139
0 153 869 1053 839 778 703 591 917 1078 1509 1878 1848 1697 1522 1669 1317 1096 1730 1762 777 640 1594 1455 865 1572 1554 1595 1624 1850 1599 1334 1788
2 34 797 1272 1163 1074 911 736 884 1012 1258 1849 1911 1962 1733 1858 1878 1628 1121 1917 1782 433 1219 1353 1967 1649 1871 1929 1667 1615 1931 1723 1809
0 41 742 1204 1346 1298 1163 882 838 915 1154 1632 2023 2190 2256 1985 2044 2187 1768 1397 1529 2006 768 1416 1250 2114 2331 2104 2058 1976 1986 1969 1962
0 91 569 1065 1287 1445 1356 1064 913 959 1017 1388 2087 2310 2376 2411 2350 2383 2438 2137 1676 1340 2078 1659 2046 1544 1989 2528 2294 2080 2120 2039 1901
4 0 421 952 1210 1456 1552 1325 1061 1051 1066 1229 1514 2312 2500 2514 2629 2595 2597 2543 2631 2272 1433 1920 2131 2313 2263 2289 2534 2429 2255 2192 2129
2 155 373 777 988 1406 1601 1609 1385 1224 1215 1318 1451 2040 2339 2707 2765 2745 2686 2710 2576 2777 2676 1964 2177 2469 2266 2511 2671 2736 2394 2414 2398
0 0 0 14 112 1058 1545 1683 1761 1620 1525 1465 1594 1711 2177 2573 2786 2786 2825 2779 2798 2686 2693 2838 2394 2151 2653 2374 2619 2696 2642 2583 2645
0 0 0 0 0 0 0 748 1933 1895 1888 1881 1750 1812 1933 2106 2726 2866 2901 3021 2890 2969 2881 2915 3004 2905 2586 2880 2834 2671 2566 2518 2852
247 96 71 88 54 111 0 0 192 2206 2185 2241 2319 2147 2189 2199 2446 2715 2924 2980 3180 3174 3224 3168 3167 3258 3228 3119 3151 3016 2769 2489 2732
580 612 545 274 179 125 330 107 110 1286 2015 2322 2406 2617 2761 2810 2631 2775 2819 3007 3135 3288 3374 3401 3457 3388 3525 3421 3405 3331 2931 2762 2975
1115 1019 851 489 331 236 157 639 89 152 858 1518 1979 2058 2045 2415 2825 3004 3230 3197 3258 3448 3538 3624 3645 3753 3699 3733 3678 3607 3252 2970 3264
973 1554 1277 1130 1038 1084 645 241 343 132 329 1103 1701 2122 2340 2268 2325 2496 2986 3281 3593 3731 3853 3871 3895 3903 3911 3880 3886 3782 3504 3142 3072
105 984 1520 1607 1588 1811 3137 2812 2270 1276 2012 2078 2228 1535 1371 2471 2563 2821 2997 3243 3631 3871 3997 4017 4011 3977 3927 3871 3825 3843 3641 3383 3140
28 144 778 1378 1884 2597 2793 2940 2692 2552 2517 2697 2996 1975 2938 3030 3278 3379 3331 3641 3777 3957 4007 4032 3963 3808 3669 3584 3533 3545 3274 2884 2474
0 0 1 205 837 1693 2117 2167 2126 2230 2420 2761 3026 3160 3967 3605 3464 3517 3713 3629 3782 3793 3514 3572 3501 3451 3285 3278 3095 1658 482 885 1548
0 0 0 11 293 901 1790 1614 1451 1296 1746 1849 2642 3489 3491 3718 3673 3841 3841 3636 2606 1234 1770 1726 1554 1969 1678 40 5 0 0 0 0
0 0 34 350 619 1230 1423 1250 1156 1168 1624 1772 2072 2409 3360 3384 3041 3341 3398 3611 2940 1384 0 0 0 0 0 0 0 0 0 0 0

GFSFLT1_con_mlcape_039.txt.gz
CAPE
102 56 105 239 205 171 194 204 136 81 87 52 35 16 20 36 23 1 32 21 56 265 380 481 446 713 894 848 873 1067 878 826 731
29 25 40 154 287 198 122 146 159 152 159 190 117 36 104 191 140 138 140 139 109 80 375 442 330 532 698 821 908 1221 1147 868 736
35 41 55 99 260 242 159 134 165 176 171 257 242 170 213 287 302 310 336 284 270 129 385 508 426 413 627 816 889 1107 1246 1108 835
33 29 61 106 228 276 218 119 260 203 206 216 394 428 384 395 475 488 512 504 406 435 319 486 604 535 599 745 752 869 1057 1311 1151
0 47 131 169 192 225 266 219 298 394 277 286 347 565 515 550 657 737 804 665 541 489 595 602 609 734 775 836 1010 994 1021 1182 1474
0 7 134 226 216 199 297 285 277 558 527 448 378 602 695 662 664 686 820 1094 1041 614 544 668 698 771 1044 1056 1179 1257 1215 1231 1290
0 0 49 259 270 94 329 358 282 517 783 762 644 721 891 959 968 895 726 734 1046 1237 882 703 799 797 721 1018 1225 1275 1389 1426 1406
0 0 0 220 255 110 285 388 350 585 904 1133 1028 978 1094 1153 1194 1215 1127 956 876 1097 1183 930 785 921 1084 987 1152 1471 1461 1436 1429
0 0 0 42 252 288 365 405 402 496 905 1314 1359 1259 1210 1212 1204 1303 1314 1239 1146 999 1105 1264 1072 753 894 1128 1226 1192 1345 1572 1705
0 0 1 83 242 412 473 492 451 526 806 1200 1507 1472 1452 1418 1343 1292 1358 1418 1422 1293 1068 1107 1166 1202 953 833 1018 1152 1250 1403 1736
0 0 0 78 403 588 580 592 552 529 875 1000 1423 1600 1622 1657 1692 1594 1514 1602 1683 1686 1589 1353 1230 1112 1232 1301 1319 1245 1033 1232 1650
32 13 163 420 653 735 713 789 731 707 895 1046 1253 1498 1680 1823 1854 1842 1926 1864 1807 1874 1946 1961 1847 1735 1489 1314 1405 1441 1411 1371 1643
566 564 405 648 839 937 1012 987 859 860 965 1014 1125 1403 1679 1895 1956 2021 2057 2127 2139 2097 2198 2211 2314 2394 2434 2141 1911 1701 1606 1418 1771
728 1119 990 733 622 744 768 1061 1160 1165 1102 1164 1186 1113 1219 1565 1912 2023 2229 2248 2337 2410 2451 2519 2563 2559 2506 2561 2472 2376 1843 1726 2143
542 882 1072 1266 908 737 939 1041 1353 1388 1482 1578 1340 1230 1274 1376 1464 1957 2146 2376 2445 2511 2613 2644 2657 2663 2678 2681 2695 2585 2317 2078 1945
28 522 1217 1522 1720 1738 1778 1866 1982 2058 2225 2478 1934 1907 1902 1684 1639 1670 1829 2171 2309 2559 2670 2740 2820 2844 2857 2924 2974 2976 2718 2452 2271
0 27 451 994 1421 1438 1298 1096 1240 1483 1883 2142 2239 2132 2235 2145 2306 2311 2118 2129 2289 2432 2619 2739 2804 2904 3003 3053 3146 3278 3338 2771 2329
0 0 1 131 721 1194 1126 866 846 893 1035 1283 2085 2205 2340 2789 2492 2048 2233 1659 1915 2648 2735 2765 2972 3030 3139 3303 3447 3393 2981 3020 3100
0 0 0 6 101 543 656 622 694 813 883 896 878 1501 2073 2557 3077 2832 1826 1143 845 67 869 1848 2557 3083 3154 1579 1903 1502 984 706 726
0 0 0 0 20 299 584 455 624 963 1013 1053 724 986 1311 1906 3109 3390 2351 1627 1629 1533 112 198 361 691 498 136 9 0 0 0 0

GFSFLT1_con_mlcape_042.txt.gz
CAPE
192 225 194 151 129 102 61 42 0 0 0 0 0 0 0 0 0 0 0 0 0 0 0 53 337 376 459 592 752 727 744 677 579
151 216 209 198 220 172 94 58 55 4 0 0 0 0 0 0 0 0 0 0 0 0 0 68 295 447 457 532 652 762 828 1043 868
38 140 94 103 160 153 133 103 98 25 0 5 0 0 0 0 0 0 0 0 0 8 2 94 310 466 536 501 637 730 820 1008 1108
0 47 44 35 71 156 124 120 123 69 35 41 21 12 24 46 66 25 32 27 28 22 50 66 163 419 452 461 534 671 847 983 1101
0 17 41 20 32 100 141 96 111 95 71 71 125 122 111 125 177 163 120 146 124 106 109 162 165 452 500 488 522 647 795 795 966
0 0 29 49 45 53 123 129 115 121 103 113 173 225 210 200 246 279 245 285 267 219 268 231 280 378 518 534 623 715 818 945 954
0 0 7 39 68 104 162 187 137 179 149 139 171 313 345 327 347 381 437 444 444 320 365 449 433 465 543 624 665 976 1031 1110 1204
0 0 0 1 29 90 167 210 175 308 304 219 224 300 490 485 479 524 550 664 781 666 475 509 527 591 609 705 756 742 1094 1359 1267
0 0 0 0 2 91 142 203 254 337 478 443 371 355 532 599 604 586 580 537 592 881 881 805 746 718 757 674 749 786 644 864 1462
0 0 0 0 0 78 130 238 280 333 526 676 641 581 626 777 835 866 816 752 672 663 812 1002 980 871 864 868 873 745 745 809 1018
29 0 0 0 4 90 149 256 323 288 598 931 912 877 908 1029 1094 1085 1099 1093 1034 955 887 909 1077 1127 1072 926 887 742 655 752 1096
159 442 0 4 74 175 194 265 339 391 691 1098 1151 1106 1169 1238 1262 1210 1217 1258 1280 1273 1266 1141 1043 1083 1150 1173 1162 858 717 648 994
234 675 160 3 94 233 319 369 378 502 684 998 1153 1221 1343 1484 1488 1430 1365 1347 1349 1472 1561 1551 1526 1391 1368 1265 1293 1181 1025 877 1216
282 860 725 368 421 492 495 499 493 616 736 861 1001 1270 1524 1562 1643 1666 1677 1664 1655 1678 1773 1854 1948 1986 1999 1999 1786 1757 1351 1141 1538
229 526 831 992 920 795 598 634 693 748 801 816 859 1098 1403 1574 1722 1863 1941 1951 2024 2114 2115 2164 2237 2283 2352 2409 2491 2195 1998 1613 1452
20 204 471 766 887 951 981 963 972 1073 1353 1386 990 993 1134 1277 1627 1836 2054 2128 2145 2258 2369 2437 2461 2521 2555 2607 2599 2611 2168 2041 1767
0 0 102 343 681 862 1031 1201 1463 1696 1966 1926 1605 1480 1308 1288 1397 1544 1867 2064 2247 2341 2391 2504 2576 2588 2619 2648 2695 2782 2841 2399 2014
0 0 0 72 354 487 492 619 806 897 1119 1824 2126 2334 2428 2058 1895 1668 1530 1021 1330 2135 2266 2419 2585 2623 2733 2838 2888 2954 3071 3164 2976
0 0 0 2 283 327 345 548 770 837 807 676 1049 1961 2206 2765 2430 1947 1529 1269 844 4 349 1105 1914 2559 2723 1651 1702 2032 2135 2120 1831
0 0 0 0 1 334 299 377 491 371 314 498 545 626 1067 1637 2837 2190 1529 1157 1210 1211 42 135 561 1161 1724 1497 844 541 369 196 151

GFSFLT1_con_mlcape_045.txt.gz
CAPE
401 439 331 290 182 161 134 112 154 69 57 27 0 29 101 142 186 169 168 263 230 240 161 257 732 740 972 1144 1391 1475 1414 1391 1462
304 463 434 362 303 201 197 132 76 133 126 67 11 1 140 213 239 207 197 284 319 285 245 224 651 662 923 1050 1175 1328 1466 1449 1657
127 322 483 453 413 317 231 180 150 89 89 87 84 9 78 212 235 269 289 353 263 275 252 208 265 733 937 1175 1192 1336 1469 1486 1698
37 146 351 462 592 503 369 243 266 188 92 108 81 45 78 139 250 249 304 298 334 401 290 334 380 656 834 1115 1234 1295 1441 1440 1591
0 63 177 258 519 550 524 446 359 342 253 186 156 141 87 82 206 248 246 284 377 434 339 430 534 727 704 1009 1184 1295 1328 1285 1459
0 8 90 219 269 380 553 531 503 461 402 299 278 248 191 156 173 248 301 354 496 530 406 470 584 781 671 952 1083 1231 1295 1275 1453
0 0 14 141 146 181 352 446 534 550 485 387 375 352 341 361 364 359 441 539 653 652 556 582 691 817 896 959 1078 1253 1310 1423 1477
0 0 0 21 45 86 138 453 433 537 549 488 445 535 515 528 559 625 685 797 826 817 740 769 806 890 932 1084 1114 1134 1231 1414 1659
0 0 0 0 47 77 107 301 415 426 522 559 571 633 652 693 716 756 794 921 958 943 825 851 1053 1034 1106 1131 1159 834 804 1037 1452
0 0 45 21 0 58 134 279 543 466 557 668 653 677 811 880 918 912 956 1044 1135 1151 1010 1067 1117 1129 1167 1269 1374 926 557 569 1081
0 8 12 59 41 2 178 301 487 649 754 744 711 756 846 1006 1039 1036 1115 1184 1218 1295 1443 1457 1342 1366 1390 1389 1524 1176 775 595 870
3 20 111 518 502 0 140 383 609 740 970 931 851 862 890 1077 1192 1207 1312 1318 1298 1280 1294 1377 1489 1638 1702 1519 1511 1113 800 721 1105
19 323 933 511 35 0 215 465 644 820 1079 1097 976 1028 1050 1255 1398 1416 1505 1548 1563 1589 1524 1436 1482 1530 1765 1855 1810 1607 807 622 1210
2 173 724 462 230 263 439 653 787 900 1217 1182 1309 1500 1517 1573 1629 1684 1731 1772 1895 1969 1902 1904 1884 1822 1898 1892 1777 1794 1208 775 1333
1 96 407 960 681 664 568 630 795 936 1143 1656 1831 1914 1790 1798 1876 1859 1972 1958 2017 2077 2158 2197 2250 2269 2347 2406 2385 1894 1662 1171 1090
0 21 360 745 1112 1169 1122 920 1003 1072 1207 1552 1622 1791 1851 1970 2117 2131 2241 2238 2245 2268 2359 2343 2502 2572 2622 2714 2818 2979 2270 1756 1361
0 0 77 426 818 974 1111 1405 1615 1726 1808 1354 1455 1565 1758 2006 2081 2174 2314 2446 2536 2558 2650 2676 2762 2840 2879 2965 3099 3224 3240 2459 1709
0 0 0 105 382 680 871 1068 1108 1176 1595 2195 1664 1467 1521 1687 1993 2011 2408 2561 2224 2751 2807 2773 2977 3091 3150 3179 3273 3339 3355 3417 3073
0 0 0 0 30 377 498 485 447 414 416 963 2196 2868 2312 1838 1732 1803 2319 1364 910 43 471 1084 2112 2679 3093 2412 2149 2579 2549 2566 2826
0 0 0 0 0 0 115 173 106 78 183 358 675 1291 1684 2489 1962 1572 1848 1350 1173 940 43 67 627 1272 1900 2005 1492 1246 1391 1329 1137

GFSFLT1_con_mlcape_048.txt.gz
CAPE
400 487 538 571 463 236 278 346 279 232 310 748 784 463 729 898 596 289 303 632 469 378 130 133 335 1487 1526 1721 1808 1816 1900 1686 1570
120 385 535 655 692 524 341 415 436 479 508 603 698 505 801 989 886 646 413 619 708 543 582 271 429 648 1268 1216 1500 1756 1835 1441 1861
57 304 535 680 746 717 508 454 461 443 474 667 657 491 557 689 668 850 755 755 838 888 616 840 429 778 792 937 1399 1612 1868 1485 1701
1 175 507 657 749 768 692 517 461 533 554 643 768 699 637 609 609 656 917 826 892 1087 1070 986 1194 782 713 1074 1546 1686 1878 1714 1507
0 55 267 513 608 674 720 691 543 506 558 603 701 767 959 725 749 732 675 956 953 1154 1259 1269 1318 1172 1050 994 1182 1629 1956 1889 1397
0 13 97 359 441 549 674 767 728 584 562 535 586 708 695 603 655 714 762 1010 1148 1219 1323 1453 1316 1287 1352 1310 1112 1569 1856 1937 1865
0 0 5 71 241 369 719 795 1092 965 709 585 515 665 660 768 768 810 846 1073 1258 1236 1409 1550 1529 1313 1426 1477 1205 1147 1580 1780 1933
0 0 1 60 108 273 735 979 1330 1262 945 867 733 927 754 965 1116 1090 1105 1279 1369 1391 1522 1613 1698 1512 1483 1580 1341 1023 1208 1394 1503
0 0 0 0 13 99 352 804 1312 1519 1402 1138 1042 1281 1127 1203 1511 1460 1439 1561 1672 1644 1643 1741 1822 1601 1587 1654 1449 799 699 963 1102
7 31 54 91 40 22 126 501 1079 1257 1510 1345 1252 1457 1454 1500 1688 1715 1744 1732 1882 1810 1766 1870 1937 1816 1737 1855 1937 1226 683 692 947
180 123 125 187 247 287 32 224 490 993 1156 1488 1512 1628 1667 1743 1900 1861 1969 2005 2037 2134 1986 2004 2001 1965 2042 2119 2139 1744 1245 752 1175
223 185 276 431 513 531 671 70 290 841 974 1330 1564 1680 1821 1877 1974 1933 1977 2013 2103 2101 2125 2125 2098 2100 2232 2259 2287 1722 1393 1150 1408
79 148 294 525 1008 1233 973 949 219 567 1075 1227 1637 1718 1802 2052 2129 2102 2092 2171 2168 2257 2241 2271 2243 2326 2426 2416 2517 2295 1472 1268 1610
0 19 265 827 1192 1233 1085 796 253 871 1226 1347 1709 1576 1689 1959 2189 2248 2291 2445 2465 2366 2219 2155 2328 2308 2412 2508 2479 2585 1858 1283 1740
0 8 636 1360 875 463 331 147 734 1434 1514 1710 1830 1824 1891 2131 2376 2133 2199 2610 2647 2561 2510 2465 2583 2491 2462 2304 2541 2262 2003 1537 1409
0 0 113 1350 1360 913 813 987 1013 1459 1794 1881 1921 1999 2228 2333 2430 2411 2486 2729 2880 2761 2875 2587 2583 2596 2513 2380 2482 2856 2179 1475 1247
0 0 0 349 1122 1692 1625 1336 1340 1515 1857 2257 2307 2367 2460 2560 2714 2672 2507 2760 2785 2670 2682 2680 2607 2665 2695 2712 2822 3066 3431 2626 1695
0 0 0 0 174 680 856 1037 1299 2023 2268 2166 2410 2536 2644 2757 2797 2702 2807 2785 1943 2753 2726 2500 2778 2825 2958 3064 3174 3353 3546 3664 3594
0 0 0 0 0 28 113 194 489 843 1562 2437 1904 2076 2285 2434 2482 2774 2802 2916 1774 278 168 498 1555 2085 2814 2845 2587 2787 3185 3226 3307
0 0 0 0 0 0 3 5 17 200 1118 1612 2621 2567 2470 2166 2219 2424 2167 1836 1617 1584 1344 403 808 1305 2121 2693 2441 2205 2383 2286 2144

GFSFLT1_con_mlcape_051.txt.gz
CAPE
446 470 352 357 360 301 467 459 447 508 949 1328 1370 944 707 475 628 54 1 156 230 146 58 91 1736 1816 1537 1823 1894 1595 1718 1581 1505
220 388 489 470 411 423 483 552 603 558 906 1325 1377 717 950 1012 740 138 0 0 610 965 465 180 401 1287 1522 1402 1383 1717 1738 1256 1619
150 210 443 529 659 553 509 560 656 652 790 1259 1368 956 1130 1104 1203 1262 539 731 1304 858 829 650 648 561 796 1304 1300 1447 1906 1318 1735
14 72 346 547 690 800 670 594 630 694 735 974 1094 1193 1163 795 877 1024 1110 1390 1426 1406 1258 1434 1273 1164 1075 1123 1148 1504 2084 1732 1628
0 1 213 555 658 891 937 806 694 753 680 695 993 1058 1397 1139 974 879 929 1033 1455 1651 1770 1663 1644 1755 1420 1189 1098 1765 1990 1785 1127
0 0 63 429 619 738 930 999 915 757 742 643 668 1091 1199 1225 969 1114 890 1329 1390 1668 1852 2009 1635 1910 1973 1574 1295 1700 2120 2140 1863
0 0 44 173 500 493 769 1029 1224 1128 860 684 544 776 871 1165 1282 1314 1102 1167 1590 1691 1960 2159 2125 2217 2152 1905 1689 1505 1548 2000 2098
0 0 18 101 310 550 973 1078 1454 1473 1069 1036 739 820 826 1111 1461 1370 1385 1234 1679 1852 2105 2222 2396 2447 2296 2139 1809 1445 1456 1874 2105
0 0 0 10 88 195 734 1207 1536 1750 1463 1332 1060 1090 983 1023 1396 1395 1371 1381 1775 2056 2212 2331 2469 2449 2491 2200 1689 1115 864 1284 1634
1 4 0 2 0 81 157 575 1395 1514 1805 1481 1473 1506 1302 1355 1668 1706 1708 1742 1967 2146 2230 2484 2653 2635 2633 2501 2362 1304 777 645 1078
520 317 79 74 101 62 36 229 523 1121 1557 1880 1840 1641 2073 1617 1984 2066 2105 2155 2189 2289 2405 2344 2551 2763 2822 2718 2722 1966 1212 713 1035
602 604 615 564 545 440 399 114 134 810 1262 2183 1951 2231 2087 2157 2141 2335 2508 2498 2519 2645 2660 2616 2675 2931 2945 2853 2833 2046 1553 1230 1306
715 586 517 614 709 725 775 848 486 356 1065 1534 2129 2356 2287 2438 2312 2544 2689 2736 2807 3001 2943 2903 2567 2827 3079 3143 3153 2785 1775 1462 1817
125 358 582 730 1014 1014 1171 1318 1001 550 841 1423 2009 2272 2487 2687 2605 2809 2893 2991 3072 3131 3103 2535 2963 2768 2957 3025 2908 3288 2274 1484 2149
0 9 92 457 1693 1737 1728 1660 1734 1484 959 1552 1867 2257 2396 2662 2899 2740 2715 3144 3215 3228 3233 3078 3222 3111 3138 2811 3260 2847 2343 1907 1809
0 1 2 196 1641 1998 1084 1064 1694 1822 1028 2063 2078 2300 2470 2649 2962 3064 2784 3151 3369 3162 3217 2634 2675 2863 2595 2326 2316 2852 2317 1798 1799
2 3 1 1 734 2362 2180 1942 1081 1061 2602 2277 2565 2617 2597 2877 2939 3088 2887 2950 3156 2717 2633 2674 2424 2327 2140 1872 1520 1364 2100 2104 1374
0 1 0 3 5 98 534 1095 1699 1906 2233 2444 2515 2676 2846 2791 2771 2769 2887 3111 2697 2750 1445 1813 2336 1719 1363 1127 1303 1364 1733 2464 2945
0 0 0 0 1 2 2 4 22 398 1170 2588 2517 2694 2673 2792 2548 2849 2957 2066 1543 677 734 827 843 802 1488 2501 1668 1962 2074 2828 3255
0 0 0 1 2 1 3 2 2 12 466 1605 2556 2837 3013 2799 2700 2880 3035 2798 2373 2115 753 296 613 1216 1363 1445 1843 2015 2335 2469 2690

GFSFLT1_con_mlcape_054.txt.gz
CAPE
63 428 342 302 296 308 227 126 198 343 802 710 804 1201 482 534 833 39 227 563 95 375 518 875 1218 1805 1604 1632 1591 1705 1482 1432 1457
76 15 254 293 387 341 354 334 260 526 807 1019 1102 764 1203 373 1032 751 105 137 262 708 277 615 1606 1510 2231 1809 1951 1338 1693 1469 1050
0 0 59 191 445 483 595 470 566 512 934 1136 1320 1107 1160 889 329 787 415 1 60 220 1008 492 1865 1883 1691 1811 1855 1969 1779 1665 1239
0 57 54 6 97 670 662 691 821 665 849 1280 1487 1507 1110 940 732 502 211 573 3 1068 524 1577 837 1663 1835 1683 1545 1872 1884 1445 1775
106 260 103 56 79 2 726 787 808 890 830 1312 1547 1659 1281 1000 1000 663 510 6 1239 763 1795 1176 2288 1226 1781 1329 1753 1752 1733 2037 1372
0 302 152 1 19 38 747 745 850 1016 944 916 1519 1740 1424 1316 1070 1147 1023 648 448 1532 1276 1835 1445 2292 1569 1970 1510 1610 1901 2210 1765
0 25 138 138 530 395 854 861 827 910 1037 1035 1061 1542 1558 1464 1282 1150 924 1214 723 1473 1879 1646 1915 1798 2264 2138 1860 1573 2010 2458 2362
6 4 0 6 124 138 512 1171 1003 953 1074 979 1015 1153 1347 1534 1694 1423 1217 1106 1335 935 1425 1921 2147 2121 2335 2393 2261 1824 1724 1914 2415
0 0 29 13 9 721 1127 1326 1216 1178 1079 1128 1020 977 1231 1368 1586 1584 1468 1206 1388 1573 1441 1836 2155 2361 2343 2596 2391 1925 1350 1665 1768
0 0 1 16 1 29 88 1163 1542 1467 1330 1244 1169 1106 1178 1280 1624 1792 1559 1719 1293 1708 1703 1844 2160 2399 2594 2619 2656 1823 1176 1135 1549
0 0 0 484 42 58 231 76 99 2011 1776 1440 1496 1296 1470 1344 1557 1713 1889 1698 1816 1515 1887 1911 2125 2438 2628 2752 2783 2339 1262 896 1085
0 0 0 614 461 312 284 383 631 1630 2128 1820 1628 1703 1579 1626 1472 1742 1809 1818 1766 1771 2000 2214 2234 2513 2678 2626 2890 2535 1906 1004 933
0 46 729 554 513 506 509 476 640 698 1572 2298 1785 1770 1938 2069 1593 1961 1944 1934 1933 2021 2175 2344 2444 2495 2724 2891 2859 2693 2181 1542 1491
247 262 270 673 765 892 769 784 981 958 813 1473 2477 1988 2074 2200 2215 1977 2399 2419 2418 2434 2552 2644 2662 2567 2743 3037 3030 3077 2227 1642 1963
275 323 259 354 720 924 1519 1884 1348 1027 1357 1286 1938 2588 2164 2728 2631 2391 2643 2765 2939 2859 2849 2967 2905 3026 3076 3168 3409 3014 2533 2106 1664
102 13 53 62 440 1303 2805 2298 2578 1550 1632 1905 1969 2391 2447 2577 2797 2913 2753 2989 3097 3195 3153 3170 3093 3145 3153 3128 3187 3358 2749 2116 2014
1 3 4 1 149 473 478 633 1257 2795 2029 2174 1925 2399 2714 2685 3052 3068 2910 3099 3197 3314 3250 3273 3220 2958 3040 3042 3061 3111 3379 2394 1716
3 2 3 3 4 9 18 43 462 912 1261 2319 1835 2885 2862 2847 2988 3037 3165 2877 3279 3280 3161 3131 3090 2958 2745 3046 2850 2605 2451 2723 2187
1 3 2 1 2 2 2 4 5 192 618 1458 3124 2993 3016 2928 3003 3077 3187 2821 2204 886 1854 1415 2139 2186 2692 1717 1320 1078 1134 1012 1902
4 1 0 0 0 1 0 4 5 6 12 825 2395 3182 2973 2939 2946 2952 3034 2811 2041 1813 464 37 255 812 1306 1866 1790 1563 1252 1195 821

GFSFLT1_con_mlcape_057.txt.gz
CAPE
287 258 90 300 256 182 119 165 100 122 121 283 483 148 17 295 147 0 124 640 1022 917 1044 932 1238 1257 1234 945 1243 1164 1105 1037 849
213 77 202 174 384 251 220 211 173 143 148 126 507 379 12 91 486 1 16 111 503 604 939 922 708 1387 1138 1131 1337 1157 1302 933 905
319 234 393 393 398 386 224 243 228 230 329 175 423 532 265 3 202 376 0 6 108 376 58 252 913 1555 1346 1339 1207 1192 1562 1161 1291
374 293 202 88 31 354 172 202 211 304 623 430 401 410 677 156 30 474 279 33 0 166 238 1018 962 1517 1500 1617 1550 1455 1406 1378 1378
348 272 261 128 1 0 189 252 344 317 496 745 644 587 527 682 99 87 364 179 2 0 63 287 1571 1449 1219 1371 1487 1535 1609 1544 1400
348 367 294 105 3 3 358 241 366 496 451 843 912 968 639 773 631 36 195 52 124 1 0 113 487 1514 1575 1461 1310 1161 1353 1445 1258
68 403 256 110 74 53 93 145 310 497 509 694 964 1088 1133 844 721 603 52 47 0 358 105 526 565 1104 1345 1210 1110 1275 1313 1449 1416
0 3 197 65 32 8 92 91 301 601 648 529 941 1175 1267 1153 900 670 636 166 89 0 806 278 1271 1228 1565 1525 1400 1279 1210 1427 1535
0 0 0 0 0 0 61 54 183 57 472 712 630 1221 1391 1329 1108 895 748 770 766 259 0 1402 782 902 1398 1701 1846 1603 1342 1244 1611
0 0 0 0 0 57 35 20 0 0 199 837 824 836 1342 1374 1224 1184 916 837 720 946 467 278 1587 1452 1381 1398 1656 1779 1630 1374 1229
0 0 0 0 155 197 46 106 122 183 189 436 943 951 1052 1313 1330 1298 1284 1086 891 846 1004 727 607 1229 1667 1695 1695 1871 1688 1522 1266
0 0 0 0 0 5 331 27 33 122 19 2 246 1040 1040 1232 1265 1314 1430 1230 1171 921 1059 1222 1043 1291 1657 1823 1951 1806 1822 1493 993
0 0 0 0 0 0 0 534 47 0 1 1 226 537 1263 1169 1202 1381 1387 1358 1227 1370 989 1069 1482 1316 1609 1924 1949 1987 1793 1581 1517
0 0 0 10 69 1 35 361 786 624 22 29 469 1080 1440 1489 1262 1360 1414 1498 1439 1340 1452 1263 1290 1576 1611 1958 2199 2254 1874 1643 1910
0 0 0 46 0 10 77 615 843 1245 1138 929 980 1900 1776 1543 1605 1428 1586 1456 1540 1469 1436 1474 1487 1704 1866 1889 2232 2275 2116 1756 1570
0 0 0 2 0 0 80 200 351 752 1301 1860 1765 1333 2136 2100 2080 1622 1738 1637 1569 1636 1672 1654 1787 1882 1977 2050 2207 2511 2235 1949 1668
0 0 0 0 12 32 39 7 75 257 640 1208 1683 2055 2010 2145 2279 2207 1680 2154 1955 2010 2071 2085 2033 2171 2188 2296 2344 2576 2881 2199 1662
8 0 0 1 1 5 0 0 17 21 27 351 1218 1940 2444 2319 2346 2407 2262 2287 2454 2418 2441 2385 2308 2322 2388 2370 2563 2445 2673 2794 2219
7 0 0 0 1 2 1 0 1 1 1 15 536 1313 2251 2662 2351 2623 2624 2452 1812 767 1414 2008 2277 2382 2510 2560 2019 2440 2330 2250 2385
19 6 0 0 1 0 2 0 0 3 4 5 195 1167 1888 2698 2474 2587 2703 2633 2208 2112 747 361 997 1614 2226 2181 2111 1514 1509 1623 1682

GFSFLT1_con_mlcape_060.txt.gz
CAPE
69 118 38 171 175 55 0 21 52 136 136 91 117 190 180 50 45 72 139 379 536 915 931 850 1140 1102 978 917 657 793 540 700 745
34 61 176 181 194 81 14 12 25 65 132 86 72 65 49 123 145 64 40 405 747 779 864 830 1170 1171 1123 965 974 754 669 718 599
122 139 270 342 237 124 94 105 39 19 76 106 93 69 21 11 93 190 5 2 437 1036 898 859 853 1120 1115 1013 816 919 856 649 711
138 216 232 361 349 182 161 165 156 109 22 54 273 253 132 5 6 161 178 0 3 182 558 815 953 1027 920 1015 884 987 1035 842 776
163 205 327 365 417 313 191 214 195 205 152 81 43 317 344 127 0 4 197 85 0 0 60 491 646 710 1011 1097 1000 834 998 981 1110
341 333 382 295 113 13 0 94 235 263 286 244 111 151 301 310 99 0 17 213 138 3 0 90 1035 1310 1154 1227 1098 1109 1089 1068 1056
324 267 234 61 60 25 6 2 50 176 254 463 333 222 278 325 413 144 0 17 177 119 16 0 77 863 1390 1220 1186 1292 1205 1189 1119
0 6 135 0 0 0 0 0 0 44 182 393 570 495 479 352 465 567 240 0 4 2 52 20 0 133 835 1340 1172 1041 918 943 911
0 0 0 0 0 41 198 44 0 0 8 323 746 771 745 724 476 612 608 345 31 0 0 63 50 72 198 820 1325 1153 1058 1017 943
0 0 0 0 0 0 0 80 30 19 2 61 408 879 921 976 965 749 658 627 390 124 20 0 109 218 497 1022 1261 1256 1028 955 1041
0 0 0 0 0 0 0 0 55 88 46 14 158 396 1074 1233 1205 1096 875 692 688 527 363 69 0 289 493 609 1252 1386 1220 1084 1109
0 0 0 0 0 0 3 0 0 1 183 342 85 339 336 988 1461 1294 1104 944 816 750 739 640 170 184 846 793 901 841 919 961 1088
0 0 0 0 0 0 9 185 49 124 212 37 174 195 400 243 524 1364 1227 1152 989 894 751 791 814 482 376 916 1289 1371 1098 897 1134
0 0 0 0 0 0 0 0 248 258 292 173 17 0 3 151 101 558 1294 1247 1187 1090 974 841 928 932 806 832 1027 1149 1012 902 1332
0 0 0 0 0 0 0 3 33 310 520 440 179 0 1 31 73 460 1061 1283 1289 1199 1164 1042 910 1064 1190 1065 1192 1327 1212 1081 1058
0 0 0 0 0 0 0 88 11 0 62 466 166 21 667 437 703 1182 1121 1233 1251 1270 1189 1296 1205 989 1052 1301 1370 1493 1408 1170 1035
0 0 0 0 0 0 0 0 0 0 1 33 46 0 136 1032 1400 1591 1325 1204 1171 1319 1289 1260 1316 1320 1258 1301 1489 1603 1766 1454 1102
0 1 0 0 0 0 0 0 0 0 0 1 2 17 221 758 1472 1429 1572 1361 1397 1324 1383 1328 1325 1330 1382 1438 1508 1628 1821 1980 1693
0 0 0 4 0 0 0 0 0 0 0 1 3 3 106 615 1708 1743 1922 1685 1331 433 671 1178 1237 1197 1482 1639 1650 1753 1780 1780 1921
1 0 38 22 0 0 0 0 0 0 0 0 2 1 5 179 878 2249 2290 2333 1751 1784 603 400 823 1153 1385 1681 1955 1644 1761 1884 1723

GFSFLT1_con_mlcape_063.txt.gz
CAPE
143 0 9 123 36 27 0 0 0 69 0 0 17 29 9 0 0 68 222 245 314 298 571 812 1001 914 887 873 493 707 596 728 745
177 159 73 123 85 19 18 0 1 61 32 0 0 24 11 3 0 0 95 145 221 389 457 785 912 917 919 1035 856 586 831 538 661
130 242 246 108 120 24 23 39 33 57 46 12 0 13 5 18 1 0 0 23 126 409 550 802 917 940 855 1030 1085 930 763 738 701
123 77 120 76 45 62 23 47 58 85 107 89 38 36 28 0 3 37 4 0 13 66 681 857 870 951 1017 934 1125 1060 948 816 757
18 28 40 133 177 108 56 19 12 47 114 156 121 70 54 0 0 0 10 0 0 4 1 246 666 879 1014 1006 1060 1065 908 904 996
248 230 132 37 49 47 22 41 37 8 18 48 137 160 100 23 0 0 0 0 0 0 0 0 90 376 869 1054 885 999 991 930 989
158 141 0 0 0 0 0 0 0 17 16 39 46 113 236 157 35 0 0 0 0 0 0 0 0 138 705 927 778 990 1097 999 943
0 0 0 0 0 0 0 0 0 0 2 20 47 48 131 248 233 131 0 0 0 0 0 0 0 1 257 856 1292 1213 1102 1064 1114
0 0 0 0 0 0 0 0 11 0 0 15 110 169 136 182 271 265 135 9 0 0 0 0 0 0 0 162 603 1172 1128 1045 1161
0 0 0 0 0 0 0 0 0 25 4 0 120 292 241 231 264 285 367 239 35 0 0 0 0 0 0 0 161 344 752 964 1081
0 0 0 0 0 0 0 0 0 61 57 27 16 466 494 452 443 339 380 448 298 115 15 2 0 0 0 0 87 32 24 274 921
0 0 0 0 0 0 0 0 0 0 110 113 157 37 273 732 713 705 525 532 525 434 216 61 35 0 0 0 3 100 60 99 754
0 0 0 0 0 0 0 0 0 0 8 175 177 87 78 129 725 948 929 796 664 564 494 391 237 74 0 0 117 58 116 183 573
0 0 0 0 0 0 0 0 0 0 0 0 111 160 48 0 30 363 1112 1075 852 702 667 625 597 581 256 32 227 436 171 150 498
0 0 0 0 0 0 0 0 0 0 0 0 52 335 209 66 22 11 36 346 1129 948 838 676 725 698 701 583 316 276 454 439 483
0 0 0 0 0 0 0 0 0 0 0 0 0 0 36 119 102 301 141 73 382 1063 1105 1001 900 824 831 829 792 683 439 343 344
0 0 0 0 0 0 0 0 0 0 0 0 0 0 0 0 14 210 867 949 879 755 1173 1228 1138 1050 951 840 926 1011 964 622 363
1 4 2 0 0 0 0 0 0 0 0 0 0 0 0 0 5 145 772 1185 1234 1086 1162 1215 1231 1187 1138 1017 917 930 1086 1147 990
0 6 1 0 0 0 0 0 0 0 0 0 0 0 0 0 0 0 192 1010 1253 570 883 1053 1054 1067 1143 1207 1060 951 879 987 1080
0 0 0 1 1 0 0 0 0 0 0 0 0 0 0 0 0 0 10 414 1474 1355 657 388 636 709 850 840 1165 909 921 909 972

GFSFLT1_con_mlcape_066.txt.gz
CAPE
259 387 299 151 69 5 0 0 1 14 0 0 0 0 0 47 26 17 64 83 77 86 247 457 640 778 768 599 601 495 356 446 640
101 197 266 206 109 41 2 11 2 34 2 0 0 2 0 0 0 0 33 117 139 206 305 343 592 696 629 675 745 525 584 527 464
22 106 69 136 119 32 11 0 7 33 33 0 0 34 22 0 0 0 0 30 139 207 258 367 446 615 748 645 865 793 583 541 642
0 136 181 96 26 9 14 0 0 6 68 37 21 41 49 16 0 0 0 0 51 138 175 327 473 703 872 757 711 753 934 641 627
65 52 150 137 71 34 0 0 0 0 27 51 30 21 44 25 15 0 0 0 0 0 76 197 632 777 867 838 840 783 825 902 766
0 0 0 8 22 34 1 1 0 19 22 52 16 6 19 9 0 0 0 12 0 0 0 3 43 311 697 852 932 982 987 1051 934
0 0 0 0 0 0 0 1 0 18 15 15 29 29 9 5 3 0 0 0 0 0 0 0 0 8 89 293 502 762 913 823 965
0 0 0 0 0 0 0 0 7 35 1 19 3 44 60 36 2 0 0 0 0 0 0 0 0 0 1 107 287 550 779 822 858
0 0 0 0 0 0 0 0 0 0 20 0 21 38 64 141 85 20 0 0 0 0 0 0 0 0 0 0 130 263 481 909 1113
0 0 0 0 0 0 0 0 0 0 0 51 3 41 78 62 150 152 102 29 0 0 0 0 0 0 0 0 0 5 31 177 734
0 0 0 0 0 0 0 0 0 0 0 27 52 0 88 113 96 138 186 171 43 3 0 0 0 0 0 0 0 0 0 0 159
0 0 0 0 0 0 0 0 0 0 0 0 39 82 72 327 201 173 188 232 299 166 10 0 0 0 0 0 0 0 0 0 0
0 0 0 0 0 0 0 0 0 0 0 0 0 53 170 20 222 521 405 305 340 368 269 126 13 24 0 0 25 0 0 0 1
0 0 0 0 0 0 0 0 0 0 0 0 0 0 38 94 0 26 698 686 492 460 460 414 280 169 128 8 5 21 0 4 110
0 0 0 0 0 0 0 0 0 0 0 0 1 0 0 0 38 26 11 512 953 741 644 610 604 510 438 325 141 10 4 0 19
0 1 0 0 0 0 0 0 0 0 0 0 0 0 0 0 0 7 96 164 86 969 931 917 807 717 682 735 648 342 116 78 47
3 2 4 0 0 0 0 0 0 0 0 0 0 0 0 0 0 0 12 180 318 221 450 800 913 733 715 746 701 727 651 241 43
4 0 2 2 2 1 0 1 0 0 0 5 0 0 0 0 0 0 0 98 445 811 451 552 869 897 936 904 863 870 825 715 435
2 4 0 1 0 0 0 0 1 0 0 6 0 0 0 0 0 0 0 0 6 458 784 691 389 849 1059 1100 952 741 591 620 510
4 6 2 1 0 0 1 0 2 1 4 1 0 0 1 0 0 0 0 0 0 0 186 498 596 461 535 827 1131 786 637 546 421

GFSFLT1_con_mlcape_069.txt.gz
CAPE
312 563 385 261 140 127 184 175 157 154 157 150 170 273 331 456 530 561 530 612 594 709 815 1040 1304 1257 1018 1165 1193 1106 1038 1161 1103
190 512 547 413 263 189 223 244 221 190 208 205 191 224 338 376 532 496 491 566 619 586 715 905 1156 1303 1264 1271 1282 1325 1067 1130 1050
46 243 613 590 404 195 205 271 282 225 242 237 216 217 273 287 245 509 511 544 535 626 670 886 1058 1155 1309 1327 1361 1291 1186 1199 1325
158 390 284 538 516 318 203 182 194 216 258 296 296 293 295 227 145 213 386 357 460 728 734 863 1030 1118 1218 1424 1386 1534 1433 1374 1192
0 4 45 292 425 233 199 152 153 152 229 293 276 345 360 288 181 174 233 185 223 486 766 824 884 1106 1285 1528 1555 1567 1514 1093 1383
0 0 0 0 0 0 100 198 140 64 123 248 243 250 219 253 313 306 245 227 176 157 398 808 879 1063 1303 1451 1551 1544 1463 1494 1197
0 0 0 0 0 0 0 0 39 127 131 103 200 236 145 165 130 215 329 507 366 206 135 197 586 784 900 1326 1594 1642 1695 1683 1727
0 0 0 0 0 0 0 0 0 1 23 38 155 274 314 309 347 195 110 203 470 430 320 195 137 386 605 756 960 1178 1363 1533 1544
0 0 0 0 0 0 0 0 0 0 0 5 50 69 358 447 496 500 415 252 161 379 402 329 269 204 178 447 566 360 466 918 1352
0 0 0 0 0 0 0 0 0 0 0 3 84 133 81 312 495 578 481 423 361 322 313 368 301 204 207 95 251 208 117 126 782
0 0 0 0 0 0 0 0 0 0 0 0 0 245 105 205 422 524 655 603 497 403 356 311 366 341 284 208 216 23 0 0 261
0 0 0 0 0 0 0 0 0 0 0 0 0 6 274 454 442 493 543 692 744 692 530 440 395 414 425 354 231 19 0 0 88
0 0 0 0 0 0 0 0 0 0 0 0 0 0 3 84 371 243 903 715 713 782 864 604 504 395 414 417 416 219 0 0 43
0 0 0 0 0 0 0 0 0 0 0 0 0 0 4 0 0 155 139 362 1131 904 914 896 830 640 535 476 425 442 81 0 98
0 0 0 0 0 0 0 0 0 0 0 0 0 0 0 0 0 2 118 143 111 978 1035 980 1013 1011 920 768 673 277 181 3 4
0 1 0 1 0 0 0 0 0 0 0 0 0 0 0 0 0 0 2 80 152 183 577 1093 1068 1149 1198 1217 1148 923 248 16 0
3 4 4 3 5 6 1 0 0 0 0 2 0 0 0 0 0 0 0 0 81 188 275 564 1143 1132 1135 1309 1313 1277 1190 472 13
1 2 1 1 1 5 9 7 0 0 0 0 4 0 0 1 0 0 1 0 0 175 478 497 398 829 1146 1072 1222 1242 1183 1238 885
0 0 2 6 6 6 6 6 6 0 0 4 8 6 0 3 1 0 0 1 0 0 0 20 267 395 380 914 1040 915 806 659 617
9 4 7 4 6 3 1 1 1 6 2 5 4 4 12 5 5 2 0 0 0 0 0 0 0 78 430 348 340 516 682 409 270

GFSFLT1_con_mlcape_072.txt.gz
CAPE
89 899 745 587 508 415 370 315 372 444 593 889 909 931 1076 1229 1167 975 900 793 418 752 776 945 1118 1270 1083 1299 1252 1128 1127 1021 761
362 885 884 756 633 559 471 491 459 582 636 1007 1009 914 1017 1221 1293 1090 594 664 877 725 717 871 1572 1014 956 990 1365 1497 1497 1201 1226
416 631 873 984 825 699 568 600 582 671 721 976 1093 1045 1020 1069 1189 1245 1067 982 1082 790 625 1036 1097 1629 1451 1116 1285 1605 1834 983 1331
4 91 366 477 725 695 713 738 718 731 772 835 1063 1070 1008 982 979 1040 1169 1062 1125 1155 912 1027 1459 1446 1491 1528 1311 1534 2051 1483 1204
0 0 0 0 0 2 82 653 716 740 806 803 906 961 1062 1065 1072 1012 829 1046 940 1015 1039 1052 1463 1634 1492 1546 1552 1836 1849 1429 1155
0 0 0 0 0 0 0 0 46 630 686 719 677 892 942 948 991 972 909 796 980 871 969 1049 1230 1483 1623 1413 1445 2075 2089 1557 1460
0 0 0 0 0 0 0 0 0 0 226 575 630 814 798 824 824 849 917 955 972 947 985 1001 1026 1283 1529 1580 1077 1412 1700 1957 1623
0 0 0 0 0 0 0 0 0 0 1 16 322 599 859 811 872 884 915 953 1085 1148 1061 1041 982 900 1084 1408 1543 1110 1434 1914 1851
0 0 0 0 0 0 0 0 0 0 0 0 0 409 495 729 999 1039 1106 1064 975 1106 1202 1227 1119 1023 777 782 778 782 920 1527 1894
0 0 0 0 0 0 0 0 0 0 0 0 0 0 460 505 626 1047 1167 1273 1251 1129 1020 1076 1257 1193 1026 868 767 232 323 571 857
0 0 0 0 0 0 0 0 0 0 0 0 0 0 0 353 372 609 963 1145 1171 1224 1274 1199 1209 1304 1349 1236 1134 562 159 123 627
0 0 0 0 0 0 0 0 0 0 0 0 0 0 0 0 18 796 859 889 1124 1163 1160 1246 1202 1188 1328 1422 1342 744 372 104 277
0 0 0 0 0 0 0 0 0 0 0 0 0 0 0 0 7 1 329 719 997 976 1019 1087 1249 1269 1274 1303 1434 1233 529 166 378
0 0 0 0 0 0 0 0 0 0 0 0 0 0 0 0 0 0 0 72 658 786 1088 1065 1174 1278 1325 1341 1326 1312 742 291 399
0 0 0 0 0 0 0 0 0 0 0 0 0 0 0 0 0 0 0 1 6 544 774 1175 1302 1350 1513 1537 1502 1132 936 371 160
0 0 0 0 0 0 0 0 0 0 0 0 0 0 0 0 0 0 0 0 0 0 432 698 1142 1198 1279 1489 1534 1645 1076 497 180
0 0 0 0 0 0 0 1 1 0 0 1 0 0 0 0 0 0 0 0 0 0 0 158 573 954 1433 1301 1515 1621 1824 1270 428
1 5 5 3 4 4 2 0 3 2 0 0 0 0 0 0 0 0 0 0 0 0 0 9 111 573 968 1284 1310 1457 1662 1705 1914
7 6 5 7 3 9 4 3 2 5 7 3 2 2 0 0 0 0 0 0 0 0 0 0 0 0 3 417 800 603 568 830 798
3 4 3 4 10 6 7 5 6 5 13 8 1 1 9 4 3 1 0 0 0 0 0 0 0 0 0 0 78 328 272 194 231

GFSFLT1_con_mlcape_075.txt.gz
CAPE
827 854 612 442 480 365 348 238 103 188 641 1293 1391 1337 1433 1616 1540 1054 715 1073 622 748 872 676 1667 1427 1176 1296 1409 1341 1290 1307 834
96 952 721 676 467 567 330 368 241 194 663 1247 1509 1402 1494 1672 1751 1495 619 954 993 950 944 684 1512 1325 1256 1236 1277 1392 1384 1059 818
224 207 90 159 241 573 455 393 385 243 469 1152 1484 1408 1443 1530 1646 1764 1414 951 1022 797 941 865 957 1363 1406 1288 1232 1403 1563 1215 1368
0 0 1 2 0 56 118 165 652 546 580 871 1387 1415 1346 1417 1525 1613 1705 1285 1196 1189 988 1193 1239 1814 1631 1649 1472 1374 1626 1789 1437
0 0 0 0 3 3 0 0 7 300 797 804 1012 1198 1408 1403 1468 1511 1467 1589 1404 1426 1429 1118 1074 1629 1635 1730 1690 1671 1675 1571 876
0 0 0 0 0 0 1 0 0 7 207 539 796 986 1151 1311 1364 1475 1451 1386 1564 1518 1479 1380 983 1444 1556 1438 1469 1803 1884 1728 1482
0 0 0 0 0 0 0 0 1 0 0 75 336 666 1029 1188 1383 1424 1399 1519 1521 1470 1595 1483 1368 1277 1697 1780 1340 1328 1841 1845 1794
0 0 0 0 0 0 0 0 0 0 0 1 0 155 882 1083 1324 1453 1298 1439 1637 1574 1623 1596 1534 1414 1458 1543 1612 1138 1479 1666 1674
0 0 0 0 0 0 0 0 0 0 0 0 0 0 66 971 1133 1158 1456 1514 1584 1722 1800 1786 1822 1625 1411 1339 1011 704 858 1282 1664
0 0 0 0 0 0 0 0 0 0 0 0 0 0 0 15 407 997 1024 1364 1501 1630 1730 1902 2023 1863 1714 1672 1543 667 308 773 991
0 0 0 0 0 0 0 0 0 0 0 0 0 0 0 0 0 90 560 925 1114 1402 1643 1641 1693 1893 2104 2094 2016 1256 553 191 891
0 0 0 0 0 0 0 0 0 0 0 0 0 0 0 0 0 0 3 138 770 1262 1455 1443 1543 1683 1917 2158 2242 1653 1077 439 468
0 0 0 0 0 0 0 0 0 0 0 0 0 0 0 0 0 0 0 0 0 341 1152 1597 1537 1580 1606 1826 1951 2087 1527 838 961
0 0 0 0 0 0 0 0 0 0 0 0 0 0 0 0 0 0 0 0 0 2 223 980 1433 1457 1556 1531 1699 1997 1414 1143 1302
0 0 0 0 0 0 0 0 0 0 0 0 0 0 0 0 0 0 0 0 0 0 7 95 1262 1379 1428 1496 1543 1588 1545 1087 865
0 0 0 0 0 0 0 0 0 0 0 0 0 0 0 0 0 0 0 0 0 0 0 0 17 988 992 1142 1443 1306 1380 971 793
0 0 0 0 0 0 0 0 0 0 0 0 0 0 0 0 0 0 0 0 0 0 0 0 0 150 394 966 1260 1328 1544 1466 576
1 0 0 0 0 0 1 1 0 1 0 0 0 0 0 0 0 0 0 0 0 0 0 0 0 0 30 26 32 1305 417 227 389
0 6 2 0 0 1 1 0 1 1 3 4 2 0 0 0 0 0 0 0 0 0 0 0 0 0 0 0 0 0 0 0 6
1 12 4 1 1 0 0 0 0 1 2 3 7 4 3 0 0 0 0 0 0 0 0 0 0 0 0 0 0 0 0 0 0

GFSFLT1_con_mlcape_078.txt.gz
CAPE
1015 691 492 315 223 402 359 68 112 595 1013 1170 1277 1251 1246 954 1159 950 938 394 1059 626 179 681 882 1172 1529 1584 1242 1379 1386 1315 1226
166 186 47 235 403 504 332 166 204 615 1173 1491 1579 1440 1637 1392 1228 941 997 502 866 932 430 730 799 1018 1312 1249 1129 1446 1354 837 1019
0 4 5 24 44 247 95 478 126 682 1137 1485 1650 1643 1728 1841 1819 1699 1272 1399 931 1448 781 294 13 383 1049 1298 1419 1197 1236 1496 746
0 3 3 16 14 0 4 87 156 69 1282 1554 1823 1808 1794 1757 1805 1972 1645 1484 1369 771 1116 810 17 0 168 1171 1349 1260 1444 1046 988
0 0 0 1 1 2 2 0 0 0 113 307 1549 1761 1755 1742 1914 1939 2064 1778 1571 1428 1069 1249 743 274 537 997 1454 1462 1306 1356 1537
0 0 0 0 1 1 2 0 1 0 0 9 76 764 1736 1815 1683 1795 1955 2034 1907 1855 1772 1555 1370 949 1515 1536 1270 1321 1338 1304 1605
0 0 0 0 0 0 0 0 0 0 2 13 2 16 485 1058 1603 1624 1623 1821 1864 1716 1807 1847 1560 1396 1688 1310 1548 1647 1502 1432 1434
0 0 0 0 0 0 0 0 0 0 0 0 0 0 35 83 97 1625 1903 1410 1450 1711 1793 1870 1899 1723 1462 1766 1487 1612 1516 1811 1680
0 0 0 0 0 0 0 0 0 0 0 0 0 0 1 0 279 432 862 1031 1257 1729 1687 1649 1864 1953 1892 1532 1932 1220 984 1355 1883
0 0 0 0 0 0 0 0 0 0 0 0 0 0 0 0 0 0 241 957 1474 1599 1526 1596 1717 1941 1992 1902 1774 1265 395 425 1246
0 0 0 0 0 0 0 0 0 0 0 0 0 0 0 0 0 0 3 122 218 738 1173 1291 1479 1781 2050 2173 2171 1756 1158 614 486
0 0 0 0 0 0 0 0 0 0 0 0 0 0 0 0 0 0 0 6 2 15 388 1018 1157 1268 1552 1944 2236 2060 1623 1274 883
0 0 0 0 0 0 0 0 0 0 0 0 0 0 0 0 0 0 0 0 0 0 0 118 799 1177 1396 1527 1750 2234 1982 1368 1402
0 0 0 0 0 0 0 0 0 0 0 0 0 0 0 0 0 0 0 0 0 0 0 0 103 330 1099 1231 1493 1712 1726 1532 1828
0 0 0 0 0 0 0 0 0 0 0 0 0 0 0 0 0 0 0 0 0 0 0 0 0 17 354 1090 1556 1655 1422 1156 917
0 0 0 0 0 0 0 0 0 0 0 0 0 0 0 0 0 0 0 0 0 0 0 0 0 0 0 77 1209 1434 1424 1252 619
0 0 0 0 0 0 0 0 0 0 0 0 0 0 0 0 0 0 0 0 0 0 0 0 0 0 0 54 477 601 1215 1206 680
0 0 0 0 0 0 0 1 0 0 0 0 0 0 0 0 0 0 0 0 0 0 0 0 0 0 0 0 0 34 2 23 0
0 0 2 0 0 0 0 1 2 1 2 0 0 0 0 0 0 0 0 0 0 0 0 0 0 0 0 0 0 0 0 0 0
3 0 6 0 0 0 0 0 2 2 2 3 2 1 0 0 0 0 0 0 0 0 0 0 0 0 0 0 0 0 0 0 0

GFSFLT1_con_mlcape_081.txt.gz
CAPE
251 376 319 154 136 229 222 93 119 147 76 316 556 497 286 348 478 280 459 299 147 561 478 762 934 1007 1140 1047 395 1025 892 801 807
176 196 131 331 156 176 263 103 59 161 189 263 739 530 383 531 647 641 413 139 54 583 30 433 877 994 1027 1016 956 958 1210 720 526
0 3 52 138 29 22 180 69 127 395 550 518 705 1085 969 910 878 825 824 921 737 779 522 544 547 365 579 1002 1070 1057 1104 822 618
0 1 3 3 2 31 37 0 35 223 298 471 401 887 988 1049 1093 1011 693 895 864 935 575 340 232 249 19 408 997 1200 1025 735 985
0 2 3 0 4 0 0 0 0 1 4 45 70 294 670 853 1321 1379 1007 918 702 1343 689 634 255 0 79 345 794 1182 1067 991 575
0 0 1 0 0 1 1 0 0 0 0 36 19 66 162 650 1138 1432 1070 1167 1249 1446 995 588 348 66 18 414 722 1035 1264 892 1285
0 0 0 0 0 0 2 4 1 3 2 3 5 0 6 154 288 558 841 1357 1776 1480 1554 1372 1018 1144 949 1092 1078 1279 1387 1144 924
0 0 0 0 0 0 0 0 0 0 0 0 0 0 0 3 37 35 76 368 1018 1677 1786 1838 1694 1339 1456 1577 1195 1285 1495 1476 1095
0 0 0 0 0 0 0 0 0 0 0 0 0 0 0 0 2 27 24 4 196 1116 1392 1687 1670 1547 1515 1280 1710 1267 1139 1434 1338
0 0 0 0 0 0 0 0 0 0 0 0 0 0 0 0 0 0 1 54 75 305 1070 1315 1474 1614 1840 1493 1494 1507 1351 996 1368
0 0 0 0 0 0 0 0 0 0 0 0 0 0 0 0 0 0 0 15 43 35 216 643 1348 1278 1378 1551 1876 1783 1335 971 763
0 0 0 0 0 0 0 0 0 0 0 0 0 0 0 0 0 0 0 0 0 0 0 13 253 910 1097 1258 1347 1390 1683 1537 1037
0 0 0 0 0 0 0 0 0 0 0 0 0 0 0 0 0 0 0 0 0 0 0 0 0 65 274 969 1084 1242 1280 1267 1115
0 0 0 0 0 0 0 0 0 0 0 0 0 0 0 0 0 0 0 0 0 0 0 0 0 0 0 12 507 1082 1088 1042 1174
0 0 0 0 0 0 0 0 0 0 0 0 0 0 0 0 0 0 0 0 0 0 0 0 0 0 0 0 8 325 732 767 607
0 0 0 0 0 0 0 0 0 0 0 0 0 0 0 0 0 0 0 0 0 0 0 0 0 0 0 0 0 0 841 920 691
0 0 0 0 0 0 0 0 0 0 0 0 0 0 0 0 0 0 0 0 0 0 0 0 0 0 0 0 0 0 46 0 115
0 0 0 0 0 0 0 0 0 0 0 0 0 0 0 0 0 0 0 0 0 0 0 0 0 0 0 0 0 0 0 0 0
0 0 0 0 0 0 0 0 0 0 0 0 0 0 0 0 0 0 0 0 0 0 0 0 0 0 0 0 0 0 0 0 0
0 0 0 0 0 0 0 0 0 0 0 0 0 0 0 0 0 0 0 0 0 0 0 0 0 0 0 0 0 0 0 0 0

GFSFLT1_con_mlcape_084.txt.gz
CAPE
7 62 192 97 95 69 85 67 151 177 262 204 211 167 183 482 451 201 17 151 448 421 639 601 941 891 941 832 722 427 558 798 715
26 59 252 262 77 145 152 90 165 168 274 282 220 210 199 386 475 362 240 414 257 195 599 512 661 845 891 822 777 573 755 579 630
3 10 41 74 62 114 196 92 139 224 224 332 329 298 328 347 423 491 181 314 189 56 369 413 624 854 875 764 669 489 824 749 549
0 1 1 1 0 32 145 93 80 166 208 197 209 369 401 550 414 604 558 391 688 700 583 488 500 491 489 566 578 978 1063 838 627
0 1 1 2 2 1 54 19 37 95 132 32 64 94 206 376 353 413 691 787 957 840 775 501 397 265 207 63 399 773 1092 862 696
0 1 0 0 1 0 0 1 28 61 23 20 16 5 69 148 199 303 374 600 738 836 779 701 467 328 14 3 174 562 973 1007 829
0 0 0 0 0 0 1 1 0 0 7 17 36 12 0 13 93 116 187 365 499 577 668 775 598 432 279 111 50 393 726 960 976
0 0 0 0 0 0 0 0 2 2 0 0 0 6 19 2 26 20 51 108 2 33 439 896 651 585 505 471 605 822 715 1187 1113
0 0 0 0 0 0 0 0 0 0 0 0 0 0 0 1 11 4 0 7 9 0 13 575 978 1056 1190 1352 1534 1447 1286 1149 1078
0 0 0 0 0 0 0 0 0 0 0 0 0 0 0 0 0 0 0 11 40 1 2 180 643 1034 1079 1193 1239 1328 1181 1112 1044
0 0 0 0 0 0 0 0 0 0 0 0 0 0 0 0 0 0 0 0 0 0 9 43 145 446 892 1002 1200 1182 1118 1051 851
0 0 0 0 0 0 0 0 0 0 0 0 0 0 0 0 0 0 0 0 0 0 0 0 0 3 96 422 739 958 815 831 948
0 0 0 0 0 0 0 0 0 0 0 0 0 0 0 0 0 0 0 0 0 0 0 0 0 0 0 0 17 78 377 743 680
0 0 0 0 0 0 0 0 0 0 0 0 0 0 0 0 0 0 0 0 0 0 0 0 0 0 0 0 0 0 0 160 501
0 0 0 0 0 0 0 0 0 0 0 0 0 0 0 0 0 0 0 0 0 0 0 0 0 0 0 0 0 0 28 22 146
0 0 0 0 0 0 0 0 0 0 0 0 0 0 0 0 0 0 0 0 0 0 0 0 0 0 0 0 0 0 0 0 0
0 0 0 0 0 0 0 0 0 0 0 0 0 0 0 0 0 0 0 0 0 0 0 0 0 0 0 0 0 0 0 0 0
0 0 0 0 0 0 0 0 0 0 0 0 0 0 0 0 0 0 0 0 0 0 0 0 0 0 0 0 0 0 0 0 0
0 0 0 0 0 0 0 0 0 0 0 0 0 0 0 0 0 0 0 0 0 0 0 0 0 0 0 0 0 0 0 0 0
0 0 0 0 0 0 0 0 0 0 0 0 0 0 0 0 0 0 0 0 0 0 0 0 0 0 0 0 0 0 0 0 0

GFSFLT1_con_mlcape_087.txt.gz
CAPE
58 60 19 17 0 0 11 26 130 145 146 133 141 218 305 339 293 217 152 310 373 426 516 624 790 810 791 637 451 210 417 527 778
23 51 146 33 26 6 20 41 99 164 152 141 133 112 102 310 302 267 133 25 209 347 391 489 529 744 851 744 697 606 450 466 512
0 0 22 72 84 131 49 28 158 168 345 201 182 195 164 173 321 336 263 185 299 208 153 345 478 620 774 818 695 596 447 701 496
0 0 0 0 4 156 178 96 162 158 180 221 213 295 319 281 300 366 328 262 154 191 68 215 410 403 694 785 690 632 429 664 730
1 1 3 1 0 1 74 144 190 195 139 70 29 116 258 399 516 528 370 288 370 373 683 555 332 362 500 505 503 542 661 968 891
0 1 1 2 1 1 17 43 130 133 71 28 7 36 71 123 129 224 354 344 551 459 578 540 388 353 305 256 89 217 567 836 954
0 0 0 1 1 0 1 0 5 42 41 27 19 51 20 8 46 44 42 0 58 254 434 609 544 400 260 123 15 9 286 599 766
0 0 0 0 0 0 0 0 0 0 0 6 17 7 17 3 3 0 0 6 4 0 11 183 560 624 457 308 208 123 133 301 684
0 0 0 0 0 0 0 0 1 2 1 0 0 0 0 0 0 5 0 15 0 0 0 15 99 439 702 702 673 602 657 791 778
0 0 0 0 0 0 0 0 0 0 0 0 0 0 1 1 1 0 0 0 0 0 0 0 0 26 276 614 797 964 957 1005 1027
0 0 0 0 0 0 0 0 0 0 0 0 0 0 0 0 0 0 0 0 0 0 0 0 0 0 0 27 223 278 407 424 546
0 0 0 0 0 0 0 0 0 0 0 0 0 0 0 0 0 0 0 0 0 0 0 0 0 0 0 0 0 2 5 55 372
0 0 0 0 0 0 0 0 0 0 0 0 0 0 0 0 0 0 0 0 0 0 0 0 0 0 0 0 0 0 0 0 39
0 0 0 0 0 0 0 0 0 0 0 0 0 0 0 0 0 0 0 0 0 0 0 0 0 0 0 0 0 0 0 0 0
0 0 0 0 0 0 0 0 0 0 0 0 0 0 0 0 0 0 0 0 0 0 0 0 0 0 0 0 0 0 0 0 0
0 0 0 0 0 0 0 0 0 0 0 0 0 0 0 0 0 0 0 0 0 0 0 0 0 0 0 0 0 0 0 0 0
0 0 0 0 0 0 0 0 0 0 0 0 0 0 0 0 0 0 0 0 0 0 0 0 0 0 0 0 0 0 0 0 0
0 0 0 0 0 0 0 0 0 0 0 0 0 0 0 0 0 0 0 0 0 0 0 0 0 0 0 0 0 0 0 0 0
0 0 0 0 0 0 0 0 0 0 0 0 0 0 0 0 0 0 0 0 0 0 0 0 0 0 0 0 0 0 0 0 0
0 0 0 0 0 0 0 0 0 0 0 0 0 0 0 0 0 0 0 0 0 0 0 0 0 0 0 0 0 0 0 0 0

GFSFLT1_con_mlcape_090.txt.gz
CAPE
25 9 0 0 15 21 6 58 132 122 107 38 13 79 86 76 89 206 193 174 301 234 405 594 497 690 678 479 453 233 253 295 610
47 20 3 0 0 28 3 1 38 98 125 86 64 99 196 213 183 164 168 96 110 246 366 448 535 690 581 635 555 403 259 335 491
8 4 9 16 17 7 0 2 29 110 111 99 77 76 181 263 260 209 167 103 62 87 213 272 347 458 499 485 516 566 452 464 388
0 0 8 10 20 36 2 7 46 117 255 219 93 12 103 127 187 256 271 221 175 136 150 59 55 213 457 598 514 595 477 278 505
0 0 0 0 3 19 92 49 94 132 154 104 97 57 149 234 319 330 352 296 244 282 256 240 224 251 262 400 626 664 617 286 401
2 1 1 1 1 7 18 88 156 95 76 68 71 19 46 69 136 239 276 281 239 231 382 410 361 299 231 222 277 299 423 496 501
0 0 0 0 1 1 1 15 53 73 56 34 13 7 28 24 13 0 0 0 0 52 186 443 433 377 308 279 192 50 32 34 403
0 0 0 0 0 0 1 0 4 33 33 29 36 46 41 23 3 0 0 0 0 0 0 25 220 477 443 397 286 208 120 32 145
0 0 0 0 0 1 1 2 1 1 0 0 6 1 0 3 0 5 1 0 0 0 0 0 0 85 303 423 543 540 295 231 445
0 0 0 0 0 0 0 0 0 1 1 0 0 1 1 1 0 0 0 0 0 0 0 0 0 0 0 24 140 36 121 246 581
0 0 0 0 0 0 0 0 0 0 0 0 0 0 0 0 0 0 0 0 0 0 0 0 0 0 0 0 0 0 0 0 120
0 0 0 0 0 0 0 0 0 0 0 0 0 0 0 0 0 0 0 0 0 0 0 0 0 0 0 0 0 0 0 0 0
0 0 0 0 0 0 0 0 0 0 0 0 0 0 0 0 0 0 0 0 0 0 0 0 0 0 0 0 0 0 0 0 0
0 0 0 0 0 0 0 0 0 0 0 0 0 0 0 0 0 0 0 0 0 0 0 0 0 0 0 0 0 0 0 0 0
0 0 0 0 0 0 0 0 0 0 0 0 0 0 0 0 0 0 0 0 0 0 0 0 0 0 0 0 0 0 0 0 0
0 0 0 0 0 0 0 0 0 0 0 0 0 0 0 0 0 0 0 0 0 0 0 0 0 0 0 0 0 0 0 0 0
0 0 0 0 0 0 0 0 0 0 0 0 0 0 0 0 0 0 0 0 0 0 0 0 0 0 0 0 0 0 0 0 0
0 0 0 0 0 0 0 0 0 0 0 0 0 0 0 0 0 0 0 0 0 0 0 0 0 0 0 0 0 0 0 0 0
0 0 0 0 0 0 0 0 0 0 0 0 0 0 0 0 0 0 0 0 0 0 0 0 0 0 0 0 0 0 0 0 0
0 0 0 0 0 0 0 0 0 0 0 0 0 0 0 0 0 0 0 0 0 0 0 0 0 0 0 0 0 0 0 0 0

GFSFLT1_con_mlcape_093.txt.gz
CAPE
353 161 33 90 212 128 76 66 121 111 203 262 311 189 216 425 459 501 619 487 697 658 614 739 888 769 783 975 1014 968 984 922 1336
290 210 50 70 269 264 103 34 50 287 236 279 234 268 231 275 303 288 555 561 634 781 835 921 1081 681 532 934 1126 1071 682 727 1064
178 204 60 32 126 259 225 26 15 64 86 300 291 233 267 186 210 244 536 385 313 365 680 789 902 947 945 688 1050 1161 925 995 926
49 42 35 29 51 98 102 37 8 43 50 252 219 108 127 244 254 307 390 595 630 506 507 414 488 667 716 981 793 911 657 683 1043
27 15 7 6 18 55 102 80 31 13 65 247 267 204 101 97 278 248 258 530 638 660 558 495 512 478 610 611 502 649 892 916 837
1 1 0 0 14 66 175 132 79 26 19 121 104 38 32 23 114 283 410 609 731 660 627 424 387 573 634 654 687 827 1072 1108 857
1 1 2 6 6 42 93 216 223 222 113 134 94 61 47 43 77 143 251 302 310 411 633 817 830 832 774 636 616 552 444 543 645
0 1 0 0 1 2 6 37 96 108 91 63 41 51 49 40 18 92 148 167 119 110 164 286 654 949 920 846 681 531 479 381 341
0 0 0 0 1 3 2 1 1 0 1 10 94 94 68 21 18 0 0 33 2 6 47 81 140 326 505 561 349 115 239 362 642
0 0 0 0 1 0 0 1 1 1 1 1 1 1 1 0 1 3 0 0 0 0 0 0 0 0 32 65 22 0 0 30 698
0 0 0 0 1 3 1 1 0 0 0 0 0 0 0 0 0 0 0 0 0 0 0 0 0 0 0 0 0 0 0 0 116
0 0 0 0 0 0 0 0 0 0 0 0 0 0 0 0 0 0 0 0 0 0 0 0 0 0 0 0 0 0 0 0 21
0 0 0 0 0 0 0 0 0 0 0 0 0 0 0 0 0 0 0 0 0 0 0 0 0 0 0 0 0 0 0 0 0
0 0 0 0 0 0 0 0 0 0 0 0 0 0 0 0 0 0 0 0 0 0 0 0 0 0 0 0 0 0 0 0 0
0 0 0 0 0 0 0 0 0 0 0 0 0 0 0 0 0 0 0 0 0 0 0 0 0 0 0 0 0 0 0 0 0
0 0 0 0 0 0 0 0 0 0 0 0 0 0 0 0 0 0 0 0 0 0 0 0 0 0 0 0 0 0 0 0 0
0 0 0 0 0 0 0 0 0 0 0 0 0 0 0 0 0 0 0 0 0 0 0 0 0 0 0 0 0 0 0 0 0
0 0 0 0 0 0 0 0 0 0 0 0 0 0 0 0 0 0 0 0 0 0 0 0 0 0 0 0 0 0 0 0 0
0 0 0 0 0 0 0 0 0 0 0 0 0 0 0 0 0 0 0 0 0 0 0 0 0 0 0 0 0 0 0 0 0
0 0 0 0 0 0 0 0 0 0 0 0 0 0 0 0 0 0 0 0 0 0 0 0 0 0 0 0 0 0 0 0 0

GFSFLT1_con_mlcape_096.txt.gz
CAPE
600 532 225 218 367 257 460 624 593 477 665 1013 968 843 958 1010 1056 291 510 624 641 755 915 720 1124 815 932 1281 1352 1559 1734 1160 1020
513 705 430 286 461 577 628 529 505 192 148 619 994 845 841 883 986 881 488 624 558 779 765 1172 918 679 655 761 989 1326 1465 855 1415
558 736 728 459 444 606 411 189 69 39 506 356 779 596 744 599 306 309 329 598 545 702 1112 1399 937 907 781 766 831 1202 1479 961 1125
676 858 755 556 638 770 699 214 23 53 114 172 745 648 772 441 415 421 408 378 499 590 946 1285 1077 827 687 842 699 768 967 1038 1125
226 294 268 360 554 626 660 538 90 37 7 63 96 734 487 276 450 438 407 410 468 723 622 915 996 1156 960 805 846 1045 1010 993 946
189 100 71 103 222 315 498 282 114 64 75 135 384 249 270 266 106 195 340 532 513 711 891 698 616 744 764 733 990 927 1011 1364 1248
45 46 40 36 66 230 288 413 505 346 164 114 125 98 24 40 41 52 127 421 665 759 925 919 591 702 783 837 1347 1273 1270 1297 1382
50 92 104 34 18 31 60 269 674 558 409 296 320 160 76 77 80 61 46 239 585 742 858 920 970 1187 1335 1382 1364 1067 1348 1138 1076
108 108 69 9 2 2 7 13 109 336 327 217 305 164 109 49 93 68 89 145 294 388 418 524 823 983 1207 1164 941 45 97 380 1173
108 113 46 3 5 3 3 1 1 0 0 0 12 6 2 2 5 14 0 0 1 60 141 167 166 297 616 68 0 0 0 0 752
59 14 0 1 4 4 3 2 1 2 1 1 0 0 0 1 2 3 3 0 0 0 5 90 91 112 89 0 0 0 0 0 273
58 40 1 0 0 2 2 1 1 0 0 0 0 0 0 0 0 0 0 0 0 0 1 12 24 63 11 0 0 0 0 0 237
6 0 1 4 0 0 0 0 0 0 0 0 0 0 0 0 0 0 0 0 0 0 0 1 2 3 0 0 0 0 0 0 0
0 0 0 0 0 0 0 0 0 0 0 0 0 0 0 0 0 0 0 0 0 0 0 0 0 0 0 0 0 0 0 0 0
0 0 0 0 0 0 0 0 0 0 0 0 0 0 0 0 0 0 0 0 0 0 0 0 0 0 0 0 0 0 0 0 0
0 0 0 0 0 0 0 0 0 0 0 0 0 0 0 0 0 0 0 0 0 0 0 0 0 0 0 0 0 0 0 0 0
0 0 0 0 0 0 0 0 0 0 0 0 0 0 0 0 0 0 0 0 0 0 0 0 0 0 0 0 0 0 0 0 0
0 0 0 0 0 0 0 0 0 0 0 0 0 0 0 0 0 0 0 0 0 0 0 0 0 0 0 0 0 0 0 0 0
0 0 0 0 0 0 0 0 0 0 0 0 0 0 0 0 0 0 0 0 0 0 0 0 0 0 0 0 0 0 0 0 0
0 0 0 0 0 0 0 0 0 0 0 0 0 0 0 0 0 0 0 0 0 0 0 0 0 0 0 0 0 0 0 0 0

GFSFLT1_con_mlcape_099.txt.gz
CAPE
515 308 116 169 255 216 408 508 502 753 1238 1260 1179 968 976 860 734 551 487 892 1017 611 616 483 1481 1181 1229 1167 1560 1554 1416 1128 1098
546 541 246 246 313 514 819 794 781 929 1422 1326 1185 998 976 1149 1009 908 771 1044 1085 962 913 1155 1116 662 811 936 1052 1308 1418 937 1047
692 602 605 313 597 700 362 294 1001 515 450 646 1070 1140 961 1073 974 799 608 680 800 811 624 925 1094 551 674 759 839 964 1383 1161 890
742 757 899 863 645 832 1033 863 688 199 727 532 660 1189 977 959 830 654 736 596 479 588 691 1011 912 1125 995 950 1003 1047 1247 1244 1202
1299 1291 1247 1112 983 1019 876 657 163 75 24 48 142 734 578 962 555 701 714 553 566 479 894 961 1067 1077 1157 1205 1094 1121 1379 1279 863
793 707 915 1080 1129 1251 1200 660 335 279 145 52 18 23 216 614 695 740 805 651 696 577 541 1021 886 1036 953 858 994 1338 1403 1406 1369
324 296 270 380 593 812 817 901 816 495 308 131 98 235 126 135 121 103 112 128 330 615 680 813 858 916 1131 1011 1041 772 1303 1323 1310
303 302 212 116 125 231 427 843 861 600 342 297 369 286 271 204 57 65 48 68 208 375 797 692 819 811 939 1091 1027 474 564 1294 1307
625 436 345 118 37 41 50 172 979 933 832 511 418 658 485 337 284 383 298 241 88 371 498 668 936 943 1229 1126 85 0 4 233 1217
521 401 205 98 32 22 8 5 53 272 520 661 738 466 350 281 228 194 254 228 143 161 202 343 538 654 329 42 0 0 0 0 163
551 254 159 91 6 5 3 2 1 2 2 32 71 46 26 20 23 19 8 31 1 0 26 186 238 257 60 0 0 0 0 0 20
447 213 169 67 2 4 3 1 0 1 2 1 0 3 1 0 0 0 1 1 22 19 55 135 196 164 37 0 0 0 0 0 279
328 167 19 0 2 1 2 2 0 0 0 0 0 0 0 0 0 0 0 1 0 1 0 35 50 0 0 0 0 0 0 0 0
126 47 0 0 0 0 0 0 0 0 0 0 0 0 0 0 0 0 0 0 0 0 0 5 2 3 1 0 0 0 0 0 0
73 16 2 3 1 0 0 0 0 0 0 0 0 0 0 0 0 0 0 0 0 0 0 0 1 2 0 0 0 0 0 0 0
26 3 0 0 0 0 0 0 0 0 0 0 0 0 0 0 0 0 0 0 0 0 0 0 0 0 0 0 0 0 0 0 0
37 1 0 0 0 0 0 0 0 0 0 0 0 0 0 0 0 0 0 0 0 0 0 0 0 0 0 0 0 0 0 0 0
91 12 0 0 0 0 0 0 0 0 0 0 0 0 0 0 0 0 0 0 0 0 0 0 0 0 0 0 0 0 0 0 0
142 72 1 0 0 0 0 0 0 0 0 0 0 0 0 0 0 0 0 0 0 0 0 0 0 0 0 0 0 0 0 0 0
127 105 29 1 0 0 0 0 0 0 0 0 0 0 0 0 0 0 0 0 0 0 0 0 0 0 0 0 0 0 0 0 0

GFSFLT1_con_mlcape_102.txt.gz
CAPE
59 75 138 95 152 54 478 650 983 1062 970 1191 1153 794 814 602 896 793 762 969 722 73 322 37 705 845 989 1211 1443 1095 1106 1084 902
2 0 22 67 111 144 112 116 650 102 1077 995 1211 1051 932 877 1004 720 725 860 1284 1144 316 32 226 129 850 726 1059 664 1138 928 901
0 1 45 28 55 3 0 0 60 800 1102 1062 845 1079 1069 1114 1135 1085 877 949 948 776 215 7 0 1 519 800 657 740 859 1080 957
192 347 290 74 55 219 7 0 330 1097 982 1005 1025 951 804 874 979 990 819 764 632 677 373 76 108 566 809 828 674 746 941 958 871
1101 593 303 91 14 4 538 781 917 742 405 248 223 630 778 874 362 536 654 382 331 485 635 889 783 989 873 976 871 842 1016 1010 972
1272 1616 1126 466 844 896 966 865 726 760 366 216 137 392 158 100 589 621 733 470 105 275 636 651 1034 896 803 529 787 843 843 823 1054
1031 1184 1196 1309 1206 1168 1064 1170 812 349 286 200 103 33 37 0 57 90 270 266 333 382 442 435 734 650 700 752 1105 905 924 1156 931
644 524 477 827 545 705 1206 1178 909 771 651 392 208 151 111 81 61 13 6 48 59 80 53 321 597 669 665 280 145 51 97 250 787
465 435 382 231 224 349 367 752 1137 807 517 415 446 283 247 248 284 145 91 74 26 29 42 164 367 258 584 172 0 0 0 0 556
619 455 293 207 121 64 5 2 253 588 1100 738 631 617 548 359 302 415 355 234 147 72 32 84 73 268 79 0 0 0 0 0 67
504 328 185 101 21 2 2 2 1 12 127 374 368 327 384 297 278 132 108 85 37 0 21 59 105 117 0 0 0 0 0 0 9
425 285 230 69 4 3 4 1 2 1 0 0 3 2 4 10 16 7 0 10 44 44 2 4 89 88 0 0 0 0 0 0 0
378 48 0 0 2 3 1 1 2 1 1 0 0 0 0 0 0 0 0 0 0 0 0 67 2 0 0 0 0 0 0 0 0
234 118 0 0 0 0 0 0 0 0 0 0 0 0 0 0 0 0 0 0 0 0 0 0 0 0 0 0 0 0 0 0 0
78 6 0 0 0 0 0 0 0 0 0 0 0 0 0 0 0 0 0 0 0 0 0 0 0 0 0 0 0 0 0 0 0
0 4 3 2 0 0 0 0 0 0 0 0 0 0 0 0 0 0 0 0 0 0 0 0 0 0 0 0 0 0 0 0 0
61 3 2 0 0 0 0 0 0 0 0 0 0 0 0 0 0 0 0 0 0 0 0 0 0 0 0 0 0 0 0 0 0
120 43 2 1 0 0 0 0 0 0 0 0 0 0 0 0 0 0 0 0 0 0 0 0 0 0 0 0 0 0 0 0 0
121 72 14 1 0 0 0 0 0 0 0 0 0 0 0 0 0 0 0 0 0 0 0 0 0 0 0 0 0 0 0 0 0
198 114 60 42 19 10 0 0 0 0 0 0 0 0 0 0 0 0 0 0 0 0 0 0 0 0 0 0 0 0 0 0 0

GFSFLT1_con_mlcape_108.txt.gz
CAPE
53 81 98 72 6 63 66 110 53 63 120 94 311 359 272 263 459 413 282 82 83 472 410 257 311 415 757 761 769 743 870 782 636
29 59 102 93 43 76 124 182 251 211 194 191 361 332 228 336 387 366 403 525 371 196 153 180 193 408 314 437 573 692 800 795 626
36 10 79 124 96 63 161 165 241 669 331 264 367 481 546 452 430 437 498 546 359 413 330 125 37 277 171 219 384 672 761 702 602
44 14 28 135 165 150 181 290 369 277 399 496 454 490 618 371 593 707 614 424 206 195 127 65 109 80 0 209 467 705 646 576 595
18 12 43 103 158 137 111 127 31 7 171 432 548 624 516 709 645 587 550 516 400 240 152 9 0 0 189 545 631 736 605 512 677
33 34 65 100 107 54 46 30 11 1 111 95 274 369 351 322 200 61 358 308 238 262 295 308 232 457 551 571 594 624 570 642 621
97 63 21 59 87 79 48 109 42 28 117 84 216 154 283 221 114 52 197 215 105 107 276 195 282 435 678 364 116 100 115 243 242
205 58 53 60 51 81 114 94 149 64 117 196 148 186 187 217 177 129 129 94 106 71 49 78 72 173 114 56 26 1 0 4 33
446 310 156 92 104 131 93 76 87 213 222 219 216 150 86 85 77 65 62 44 18 0 23 19 59 2 0 0 0 0 0 0 0
513 483 355 179 183 161 128 108 95 6 66 233 183 158 176 175 130 136 153 138 101 58 42 47 3 0 0 0 0 0 0 0 1
425 421 260 151 31 24 6 14 71 65 50 202 249 243 258 307 327 307 250 147 58 21 59 47 0 0 0 0 0 0 0 0 8
297 51 3 1 1 0 1 1 8 82 183 181 386 396 425 381 317 234 128 35 0 0 23 0 0 0 0 0 0 0 0 9 15
56 31 0 0 1 1 1 0 1 61 72 156 194 137 157 151 136 83 19 0 0 0 32 2 0 0 0 0 0 0 0 0 0
1 0 0 0 0 0 1 1 1 6 3 24 1 0 0 0 0 0 0 0 0 0 22 0 0 0 0 0 0 0 0 0 0
0 0 0 0 0 0 0 0 0 0 0 1 0 0 0 0 0 0 0 0 0 0 0 0 0 0 0 0 0 0 0 0 0
0 0 0 0 0 0 0 0 0 0 0 0 0 0 0 0 0 0 0 0 0 0 0 0 0 0 0 0 0 0 0 0 0
2 0 0 0 0 0 0 0 0 0 0 0 0 0 0 0 0 0 0 0 0 0 0 0 0 0 0 0 0 0 0 0 0
25 0 0 0 0 0 0 0 0 0 0 0 0 0 0 0 0 0 0 0 0 0 0 0 0 0 0 0 0 0 0 0 0
12 0 0 0 0 0 0 0 0 0 0 0 0 0 0 0 0 0 0 0 0 0 0 0 0 0 0 0 0 0 0 0 0
55 10 2 0 0 0 0 0 0 0 0 0 0 0 0 0 0 0 0 0 0 0 0 0 0 0 0 0 0 0 0 0 0

GFSFLT1_con_mlcape_111.txt.gz
CAPE
40 83 8 48 79 32 57 41 113 84 15 35 64 70 132 290 243 158 177 228 188 161 301 209 249 421 775 560 397 175 517 677 584
3 6 34 74 92 82 58 34 56 85 5 0 92 45 176 273 263 269 312 257 73 97 324 256 194 316 466 621 548 611 696 702 463
0 0 56 51 65 133 110 96 72 91 59 7 30 93 262 156 214 347 325 337 397 240 189 158 51 183 211 219 280 407 647 706 601
1 45 36 52 23 136 166 189 162 157 154 140 142 270 316 226 332 324 344 438 399 253 253 154 29 54 132 54 180 357 563 508 509
0 26 77 87 109 184 217 223 239 237 234 276 317 320 417 496 427 445 494 456 331 158 111 21 0 7 30 0 321 554 580 526 606
24 15 43 93 130 146 187 214 194 262 251 235 314 433 312 217 194 281 217 296 347 294 205 84 48 48 181 487 545 540 522 528 554
27 53 41 33 102 154 154 120 98 89 13 35 146 277 217 189 140 110 18 140 98 137 166 173 273 326 432 463 217 176 158 207 362
31 11 38 47 89 93 93 49 14 0 9 43 80 164 109 52 80 217 125 66 90 81 85 47 87 219 153 70 58 14 0 0 26
52 17 23 32 40 59 74 81 98 47 78 90 128 66 104 108 114 154 124 98 83 61 11 4 44 39 25 0 0 0 0 0 0
286 111 107 92 117 100 95 82 126 180 131 104 123 126 87 74 79 134 117 73 46 9 2 29 17 3 0 0 0 0 0 0 0
187 94 76 56 50 111 89 80 79 47 37 93 72 141 84 142 102 129 210 216 169 102 77 35 4 0 0 0 0 0 0 0 0
86 53 1 1 0 1 0 0 1 31 35 8 42 181 197 183 212 228 226 156 53 62 44 0 0 0 0 0 0 0 0 0 0
0 0 0 0 1 1 1 1 2 1 39 1 3 6 84 233 283 239 150 72 11 9 11 0 0 0 0 0 0 0 0 0 0
0 0 0 0 0 0 2 3 1 0 1 0 2 2 1 1 39 25 10 0 0 12 17 0 0 0 0 0 0 0 0 0 0
0 0 0 0 0 0 0 0 0 1 1 2 1 2 2 1 0 0 0 0 0 1 2 0 0 0 0 0 0 0 0 0 0
0 0 0 0 0 0 0 0 0 0 0 0 0 0 0 0 0 0 0 0 0 0 0 0 0 0 0 0 0 0 0 0 0
0 0 0 0 0 0 0 0 0 0 0 0 0 0 0 0 0 0 0 0 0 0 0 0 0 0 0 0 0 0 0 0 0
0 0 0 0 0 0 0 0 0 0 0 0 0 0 0 0 0 0 0 0 0 0 0 0 0 0 0 0 0 0 0 0 0
0 0 0 0 0 0 0 0 0 0 0 0 0 0 0 0 0 0 0 0 0 0 0 0 0 0 0 0 0 0 0 0 0
0 0 0 0 0 0 0 0 0 0 0 0 0 0 0 0 0 0 0 0 0 0 0 0 0 0 0 0 0 0 0 0 0

GFSFLT1_con_mlcape_114.txt.gz
CAPE
9 0 0 10 16 50 57 61 75 89 0 42 105 145 120 118 125 134 135 146 164 211 198 237 209 374 680 614 399 40 0 537 453
14 8 0 0 20 46 69 84 81 99 85 33 67 125 116 121 187 165 108 124 169 115 120 228 168 195 453 566 495 411 485 606 327
22 9 0 9 28 32 43 84 96 102 113 39 0 115 87 65 153 199 174 233 233 120 140 187 137 129 210 365 352 365 432 561 579
26 2 16 14 8 24 23 61 73 108 126 78 67 113 106 108 211 151 271 250 252 241 197 157 138 61 75 134 113 192 337 450 533
25 29 7 34 29 59 38 80 87 94 119 122 113 133 132 197 209 231 298 301 269 148 131 80 73 58 98 67 0 206 380 411 413
29 16 18 26 46 56 82 135 145 145 140 135 160 154 196 305 275 350 352 333 222 164 106 52 7 0 0 41 201 383 450 406 379
42 29 36 79 105 93 53 101 186 202 180 197 200 214 240 251 264 313 127 33 24 55 74 93 127 135 232 315 368 315 292 209 234
76 35 74 98 132 137 65 102 156 162 174 165 211 242 250 223 144 157 104 86 36 30 64 52 38 94 120 83 66 33 31 12 14
138 103 87 100 83 120 127 187 160 85 48 0 73 203 164 137 48 42 56 94 108 35 56 79 49 25 19 7 0 0 0 0 0
105 157 126 139 137 139 85 107 96 58 31 7 14 62 66 65 72 96 91 107 88 77 58 24 14 0 0 0 0 0 0 0 0
181 133 67 56 92 112 47 90 176 122 78 72 40 43 65 66 76 47 65 86 85 61 25 13 6 0 0 0 0 0 0 0 0
67 39 14 5 1 2 1 7 41 78 102 79 65 44 51 76 53 43 86 92 66 56 38 1 0 0 0 0 0 0 0 0 0
0 0 0 1 2 2 1 2 1 26 46 109 40 55 87 89 90 103 55 24 14 2 11 0 0 0 0 0 0 0 0 0 0
0 0 0 0 0 1 1 3 1 0 0 0 0 0 0 0 36 62 18 2 0 3 0 0 0 0 0 0 0 0 0 0 0
0 0 0 0 0 0 1 2 1 1 1 2 1 1 0 0 0 1 1 0 4 7 0 0 0 0 0 0 0 0 0 0 0
0 0 0 0 0 0 0 0 0 0 1 0 0 1 1 1 2 1 0 0 0 12 0 0 0 0 0 0 0 0 0 0 0
0 0 0 0 0 0 0 0 0 0 0 0 0 0 0 0 0 0 0 0 0 0 0 0 0 0 0 0 0 0 0 0 0
0 0 0 0 0 0 0 0 0 0 0 0 0 0 0 0 0 0 0 0 0 0 0 0 0 0 0 0 0 0 0 0 0
0 0 0 0 0 0 0 0 0 0 0 0 0 0 0 0 0 0 0 0 0 0 0 0 0 0 0 0 0 0 0 0 0
0 0 0 0 0 0 0 0 0 0 0 0 0 0 0 0 0 0 0 0 0 0 0 0 0 0 0 0 0 0 0 0 0

GFSFLT1_con_mlcape_117.txt.gz
CAPE
33 5 0 3 53 94 93 39 112 109 77 116 257 330 377 436 482 446 492 523 450 641 725 739 800 804 778 775 929 802 388 569 1235
41 2 0 4 45 45 63 38 108 64 66 99 221 326 369 418 485 442 468 521 473 567 638 715 633 573 735 996 1084 804 708 590 875
47 33 0 16 57 59 64 76 137 133 155 129 160 305 383 424 452 509 571 535 515 613 464 394 696 554 534 865 1088 1155 932 959 1215
28 43 2 9 27 45 68 132 143 157 196 248 189 242 342 385 359 388 584 583 758 738 592 560 409 388 450 528 677 733 788 671 835
56 52 2 6 20 19 36 98 156 167 217 214 265 327 337 268 317 476 541 672 729 570 576 509 545 394 260 254 422 412 599 700 721
118 68 48 36 30 12 52 114 139 170 201 197 264 316 315 285 238 435 542 726 678 625 559 396 298 192 114 296 327 243 614 802 862
145 110 124 112 60 20 2 80 197 168 168 147 221 320 307 330 365 605 645 752 403 221 220 256 352 391 377 326 434 991 913 550 566
165 128 130 124 130 165 56 87 151 261 175 162 307 255 366 384 413 545 656 340 179 74 89 171 190 223 253 511 488 373 290 368 391
258 209 215 182 164 132 103 94 97 153 281 238 243 465 486 352 363 352 298 175 125 90 100 51 163 132 22 20 22 0 0 0 60
369 268 270 268 203 107 84 27 47 67 108 141 121 171 235 216 119 149 29 28 98 123 77 58 94 60 2 0 0 0 0 0 0
265 174 171 196 223 120 63 89 94 61 62 53 55 17 28 88 74 7 5 39 82 87 67 56 43 1 0 0 0 0 0 0 0
100 62 21 6 8 17 28 82 265 167 153 133 106 74 83 76 46 51 52 12 11 65 78 36 4 0 0 0 0 0 0 1 0
41 4 3 1 2 2 5 1 23 158 148 145 141 99 74 66 76 94 58 48 36 18 29 4 1 0 0 0 0 0 0 0 1
2 4 1 1 1 0 2 2 1 39 35 26 20 17 14 1 0 29 45 35 18 3 0 2 0 0 0 0 0 0 0 0 0
2 3 1 2 1 2 2 2 1 1 0 3 2 1 1 0 0 0 0 0 4 0 1 3 0 0 0 0 0 0 0 0 0
8 2 1 1 0 0 1 1 0 0 1 0 1 2 2 1 1 0 0 0 2 11 3 4 0 0 0 0 0 0 0 0 0
1 0 0 0 0 0 0 0 0 0 0 0 0 0 1 0 0 0 0 0 1 1 2 1 0 0 0 0 0 0 0 0 0
0 0 0 0 0 0 0 0 0 0 0 0 0 0 0 0 0 0 0 0 0 0 0 0 0 0 0 0 0 0 0 0 0
0 0 0 0 0 0 0 0 0 0 0 0 0 0 0 0 0 0 0 0 0 0 0 0 0 0 0 0 0 0 0 0 0
0 0 0 0 0 0 0 0 0 0 0 0 0 0 0 0 0 0 0 0 0 0 0 0 0 0 0 0 0 0 0 0 0

GFSFLT1_con_mlcape_120.txt.gz
CAPE
151 126 136 67 95 181 213 291 273 294 315 464 523 642 414 717 585 554 428 405 527 418 529 538 560 781 936 991 1378 1326 1399 866 1002
0 0 57 126 92 228 262 313 298 331 330 397 347 425 602 786 1012 728 572 848 827 531 704 831 920 1044 966 803 929 920 1027 734 876
8 5 33 138 118 236 346 339 336 395 388 318 309 321 495 622 704 975 975 986 1058 831 922 1046 1095 1272 1193 1112 1137 1211 1383 889 1083
42 92 73 117 147 261 368 361 341 481 446 301 322 352 454 478 547 678 898 820 1109 1208 1404 1346 1348 1467 1385 1280 1195 1257 1466 1302 931
68 86 65 47 200 336 345 352 364 591 535 492 453 390 537 723 688 775 589 791 926 1216 1315 1285 1472 1435 1320 1095 1185 1179 1304 1193 794
175 199 165 66 103 373 323 233 457 495 658 661 661 666 695 761 766 853 611 838 942 1219 1249 1259 1047 1035 1047 1032 991 987 1003 1015 861
341 240 226 100 31 80 82 69 106 513 662 718 789 758 800 785 772 700 747 934 1085 1141 1139 1158 1093 1151 1114 951 760 830 1024 925 811
496 462 396 276 46 17 46 44 83 445 732 847 876 858 805 848 809 761 933 800 1020 1064 920 760 725 735 734 961 1010 788 1152 1114 939
482 494 382 413 288 85 50 35 38 110 669 1035 750 433 284 667 1011 993 961 710 946 856 572 465 476 461 596 622 340 0 0 0 155
688 624 573 386 412 301 257 85 61 61 393 752 479 229 297 722 873 642 673 773 818 372 117 290 240 375 387 110 12 0 0 0 0
445 502 613 623 556 420 114 78 93 52 70 174 486 254 244 341 254 369 541 152 85 44 81 103 116 141 150 52 0 0 0 0 0
91 54 40 57 76 120 170 86 52 57 38 24 45 97 89 138 70 125 108 36 17 41 62 91 12 0 0 0 0 0 0 0 12
5 3 5 4 3 11 35 127 259 162 82 83 117 111 128 154 179 132 66 24 23 38 17 0 0 0 0 0 0 0 0 1 93
4 6 4 4 3 4 5 19 158 358 325 249 208 119 54 27 12 5 79 52 32 3 0 0 1 1 0 0 0 0 0 0 40
23 7 3 4 3 4 4 3 0 1 15 8 11 12 2 1 1 2 5 2 0 1 1 0 2 1 0 0 0 0 0 0 0
61 10 1 1 0 0 0 1 1 0 1 3 2 0 0 1 2 1 1 1 0 0 1 0 0 0 0 0 0 0 0 0 0
76 36 6 0 0 0 0 0 0 1 0 0 1 1 1 1 4 1 1 0 0 1 3 3 5 6 1 0 0 0 0 0 0
99 0 0 1 0 0 0 0 0 0 0 0 0 0 0 0 0 0 0 0 0 0 0 0 1 1 2 0 0 0 0 0 0
0 0 0 0 0 0 0 0 0 0 0 0 0 0 0 0 0 0 0 0 0 0 0 0 0 0 0 0 0 0 0 0 0
0 0 0 0 0 0 0 0 0 0 0 0 0 0 0 0 0 0 0 0 0 0 0 0 0 0 0 0 0 0 0 0 0

GFSFLT1_con_mlcape_123.txt.gz
CAPE
204 214 100 45 104 159 447 420 407 488 550 754 738 955 826 933 828 825 666 972 612 579 594 514 1095 1520 1216 1244 1515 1367 1494 1251 1085
52 92 157 103 116 108 409 417 442 646 626 704 643 791 813 842 946 754 482 905 974 1020 922 805 1167 1104 1339 1291 1161 1139 1198 1160 844
190 196 278 251 142 137 202 319 596 554 711 747 609 526 630 734 740 904 817 1146 1260 816 953 1412 1287 1446 1233 1336 1221 1261 1300 990 1062
114 54 67 149 79 147 228 426 531 668 749 747 630 465 601 654 727 901 971 985 1159 1209 1280 1382 1362 1414 1229 1434 1377 1350 1457 1135 1456
133 138 106 155 209 153 279 549 620 726 773 733 588 449 685 752 764 693 731 876 753 1317 1304 1201 1276 1592 1549 1495 1479 1361 1287 1544 1045
219 261 193 186 217 196 420 650 726 644 821 776 629 486 465 691 756 964 907 876 902 1040 1140 1386 1168 1335 1355 1240 1162 1165 1275 1308 1271
359 298 281 144 101 95 555 758 964 826 926 910 834 732 473 505 561 653 765 871 1040 937 825 1215 1024 1103 1113 1143 921 906 1111 1034 1171
608 106 248 79 18 11 312 755 922 925 1127 1122 1089 1064 1006 842 852 788 851 866 905 881 886 925 723 623 776 977 881 656 854 1031 1070
685 641 495 422 311 176 85 269 442 268 503 1042 1270 1207 1233 1165 1204 1060 907 1124 1165 1241 1071 871 783 556 657 505 482 0 0 5 249
494 668 632 475 610 212 131 57 179 349 268 442 819 957 1065 979 948 1136 1173 937 941 1123 1020 773 778 622 332 401 31 0 0 0 1
430 359 507 233 392 468 152 23 91 122 140 353 566 853 885 1058 1081 1104 1014 846 886 850 832 442 199 109 124 179 0 0 0 0 1
3 2 5 10 184 388 279 158 112 71 41 54 170 559 476 618 242 231 230 295 304 342 323 201 66 21 0 0 0 0 0 0 58
26 5 2 2 8 118 251 236 177 83 25 10 13 30 48 130 224 235 227 208 311 209 134 36 0 0 0 0 0 0 0 0 1
4 2 1 3 3 3 23 84 265 180 48 28 44 96 76 47 46 7 16 35 39 0 0 0 1 4 4 0 0 0 0 0 0
45 3 4 3 2 3 3 2 32 47 22 58 65 50 54 30 8 23 7 4 0 0 0 0 1 0 2 3 0 0 0 0 0
53 1 2 1 2 1 2 2 1 0 2 1 2 1 1 1 1 0 6 0 0 1 0 0 2 2 1 2 1 0 0 0 0
105 1 0 0 0 0 0 0 1 1 1 1 0 1 1 0 1 1 1 0 0 3 3 1 4 2 0 0 1 0 0 0 0
35 26 0 0 0 0 0 0 0 0 0 0 0 0 0 0 0 0 0 0 2 0 0 0 1 3 0 0 0 0 0 0 0
13 22 0 0 0 0 0 0 0 0 0 0 0 0 0 0 0 0 0 0 0 0 0 0 0 0 0 0 0 0 0 0 0
0 0 0 0 0 0 0 0 0 0 0 0 0 0 0 0 0 0 0 0 0 0 0 0 0 0 0 0 0 0 0 0 0